Wetterdaten: Montag, 07.03.2011
Datum Zeit Temp. Innen Temp. Aussen UV X Diff Temp. Feuchte Inne Feuchte Auss Sonnenschein Luftdruck Regen ab 0,1 Wind Sonnenschein T Regendauer Windben
07.03.2011 00:00 12,4 C 0,3 C 0,0 UV-I 0,0 C 41 % 70 % 0 % 1031,8 hPa 0,0 l/m 0,0 km/h (0 Bft) 0 min 0 min 0,0 km/h (0 Bft)
07.03.2011 00:02 12,2 C 0,3 C 0,0 UV-I 0,0 C 41 % 70 % 0 % 1031,8 hPa 0,0 l/m 0,0 km/h (0 Bft) 0 min 0 min 0,0 km/h (0 Bft)
07.03.2011 00:04 12,4 C 0,3 C 0,0 UV-I 0,0 C 41 % 70 % 0 % 1031,8 hPa 0,0 l/m 0,0 km/h (0 Bft) 0 min 0 min 0,0 km/h (0 Bft)
07.03.2011 00:06 12,4 C 0,2 C 0,0 UV-I 0,0 C 41 % 70 % 0 % 1031,8 hPa 0,0 l/m 0,0 km/h (0 Bft) 0 min 0 min 0,0 km/h (0 Bft)
07.03.2011 00:08 12,2 C 0,2 C 0,0 UV-I 0,0 C 41 % 70 % 0 % 1031,8 hPa 0,0 l/m 0,0 km/h (0 Bft) 0 min 0 min 0,0 km/h (0 Bft)
07.03.2011 00:10 12,2 C 0,3 C 0,0 UV-I 0,0 C 41 % 70 % 0 % 1031,8 hPa 0,0 l/m 0,0 km/h (0 Bft) 0 min 0 min 0,0 km/h (0 Bft)
07.03.2011 00:12 12,2 C 0,3 C 0,0 UV-I 0,0 C 41 % 70 % 0 % 1031,8 hPa 0,0 l/m 0,0 km/h (0 Bft) 0 min 0 min 0,0 km/h (0 Bft)
07.03.2011 00:14 12,2 C 0,2 C 0,0 UV-I 0,0 C 41 % 70 % 0 % 1031,8 hPa 0,0 l/m 0,0 km/h (0 Bft) 0 min 0 min 0,0 km/h (0 Bft)
07.03.2011 00:16 12,3 C 0,1 C 0,0 UV-I 0,0 C 41 % 70 % 0 % 1031,8 hPa 0,0 l/m 0,0 km/h (0 Bft) 0 min 0 min 0,0 km/h (0 Bft)
07.03.2011 00:18 12,3 C 0,1 C 0,0 UV-I 0,0 C 41 % 70 % 0 % 1031,8 hPa 0,0 l/m 0,0 km/h (0 Bft) 0 min 0 min 0,0 km/h (0 Bft)
07.03.2011 00:20 12,3 C 0,1 C 0,0 UV-I 0,0 C 41 % 70 % 0 % 1031,8 hPa 0,0 l/m 0,0 km/h (0 Bft) 0 min 0 min 0,0 km/h (0 Bft)
07.03.2011 00:22 12,3 C 0,1 C 0,0 UV-I 0,0 C 41 % 70 % 0 % 1031,8 hPa 0,0 l/m 0,0 km/h (0 Bft) 0 min 0 min 0,0 km/h (0 Bft)
07.03.2011 00:24 12,3 C 0,0 C 0,0 UV-I 0,0 C 41 % 70 % 0 % 1031,8 hPa 0,0 l/m 0,0 km/h (0 Bft) 0 min 0 min 0,0 km/h (0 Bft)
07.03.2011 00:26 12,3 C 0,1 C 0,0 UV-I 0,0 C 41 % 70 % 0 % 1031,9 hPa 0,0 l/m 0,0 km/h (0 Bft) 0 min 0 min 0,0 km/h (0 Bft)
07.03.2011 00:28 12,3 C 0,0 C 0,0 UV-I 0,0 C 41 % 70 % 0 % 1031,9 hPa 0,0 l/m 0,0 km/h (0 Bft) 0 min 0 min 0,0 km/h (0 Bft)
07.03.2011 00:30 12,3 C 0,0 C 0,0 UV-I 0,0 C 41 % 70 % 0 % 1031,9 hPa 0,0 l/m 0,0 km/h (0 Bft) 0 min 0 min 0,0 km/h (0 Bft)
07.03.2011 00:32 12,1 C 0,0 C 0,0 UV-I 0,0 C 41 % 70 % 0 % 1031,9 hPa 0,0 l/m 0,0 km/h (0 Bft) 0 min 0 min 0,0 km/h (0 Bft)
07.03.2011 00:34 12,1 C 0,0 C 0,0 UV-I 0,0 C 41 % 70 % 0 % 1031,9 hPa 0,0 l/m 0,0 km/h (0 Bft) 0 min 0 min 0,0 km/h (0 Bft)
07.03.2011 00:36 12,1 C 0,0 C 0,0 UV-I 0,0 C 41 % 70 % 0 % 1031,9 hPa 0,0 l/m 0,0 km/h (0 Bft) 0 min 0 min 0,0 km/h (0 Bft)
07.03.2011 00:38 12,1 C 0,0 C 0,0 UV-I 0,0 C 41 % 70 % 0 % 1031,9 hPa 0,0 l/m 0,0 km/h (0 Bft) 0 min 0 min 0,0 km/h (0 Bft)
07.03.2011 00:40 12,1 C 0,0 C 0,0 UV-I 0,0 C 41 % 70 % 0 % 1031,9 hPa 0,0 l/m 0,0 km/h (0 Bft) 0 min 0 min 0,0 km/h (0 Bft)
07.03.2011 00:42 12,2 C -0,1 C 0,0 UV-I 0,0 C 41 % 70 % 0 % 1031,9 hPa 0,0 l/m 0,0 km/h (0 Bft) 0 min 0 min 0,0 km/h (0 Bft)
07.03.2011 00:44 12,2 C -0,1 C 0,0 UV-I 0,0 C 41 % 70 % 0 % 1031,9 hPa 0,0 l/m 0,0 km/h (0 Bft) 0 min 0 min 0,0 km/h (0 Bft)
07.03.2011 00:46 12,2 C -0,1 C 0,0 UV-I 0,0 C 41 % 70 % 0 % 1032,1 hPa 0,0 l/m 0,0 km/h (0 Bft) 0 min 0 min 0,0 km/h (0 Bft)
07.03.2011 00:48 12,2 C -0,1 C 0,0 UV-I 0,0 C 41 % 70 % 0 % 1032,1 hPa 0,0 l/m 0,0 km/h (0 Bft) 0 min 0 min 0,0 km/h (0 Bft)
07.03.2011 00:50 12,2 C -0,1 C 0,0 UV-I 0,0 C 41 % 70 % 0 % 1032,1 hPa 0,0 l/m 0,0 km/h (0 Bft) 0 min 0 min 0,0 km/h (0 Bft)
07.03.2011 00:52 12,2 C -0,1 C 0,0 UV-I 0,0 C 41 % 70 % 0 % 1032,1 hPa 0,0 l/m 0,0 km/h (0 Bft) 0 min 0 min 0,0 km/h (0 Bft)
07.03.2011 00:54 12,2 C -0,3 C 0,0 UV-I 0,0 C 41 % 70 % 0 % 1032,1 hPa 0,0 l/m 0,0 km/h (0 Bft) 0 min 0 min 0,0 km/h (0 Bft)
07.03.2011 00:56 12,2 C -0,3 C 0,0 UV-I 0,0 C 41 % 71 % 0 % 1032,1 hPa 0,0 l/m 0,0 km/h (0 Bft) 0 min 0 min 0,0 km/h (0 Bft)
07.03.2011 00:58 12,2 C -0,3 C 0,0 UV-I 0,0 C 41 % 70 % 0 % 1032,1 hPa 0,0 l/m 0,0 km/h (0 Bft) 0 min 0 min 0,0 km/h (0 Bft)
07.03.2011 01:00 12,2 C -0,4 C 0,0 UV-I 0,0 C 41 % 71 % 0 % 1032,1 hPa 0,0 l/m 0,0 km/h (0 Bft) 0 min 0 min 0,0 km/h (0 Bft)
07.03.2011 01:02 12,1 C -0,4 C 0,0 UV-I 0,0 C 41 % 71 % 0 % 1032,1 hPa 0,0 l/m 0,0 km/h (0 Bft) 0 min 0 min 0,0 km/h (0 Bft)
07.03.2011 01:04 12,2 C -0,5 C 0,0 UV-I 0,0 C 41 % 71 % 0 % 1032,1 hPa 0,0 l/m 0,0 km/h (0 Bft) 0 min 0 min 0,0 km/h (0 Bft)
07.03.2011 01:06 12,1 C -0,5 C 0,0 UV-I 0,0 C 41 % 71 % 0 % 1031,9 hPa 0,0 l/m 0,0 km/h (0 Bft) 0 min 0 min 0,0 km/h (0 Bft)
07.03.2011 01:08 12,1 C -0,5 C 0,0 UV-I 0,0 C 41 % 71 % 0 % 1031,9 hPa 0,0 l/m 0,0 km/h (0 Bft) 0 min 0 min 0,0 km/h (0 Bft)
07.03.2011 01:10 12,1 C -0,5 C 0,0 UV-I 0,0 C 41 % 71 % 0 % 1031,9 hPa 0,0 l/m 0,0 km/h (0 Bft) 0 min 0 min 0,0 km/h (0 Bft)
07.03.2011 01:12 12,1 C -0,5 C 0,0 UV-I 0,0 C 41 % 71 % 0 % 1031,9 hPa 0,0 l/m 0,0 km/h (0 Bft) 0 min 0 min 0,0 km/h (0 Bft)
07.03.2011 01:14 12,1 C -0,7 C 0,0 UV-I 0,0 C 41 % 71 % 0 % 1031,9 hPa 0,0 l/m 0,0 km/h (0 Bft) 0 min 0 min 0,0 km/h (0 Bft)
07.03.2011 01:16 12,1 C -0,7 C 0,0 UV-I 0,0 C 41 % 71 % 0 % 1031,9 hPa 0,0 l/m 0,0 km/h (0 Bft) 0 min 0 min 0,0 km/h (0 Bft)
07.03.2011 01:18 12,1 C -0,8 C 0,0 UV-I 0,0 C 41 % 71 % 0 % 1031,9 hPa 0,0 l/m 0,0 km/h (0 Bft) 0 min 0 min 0,0 km/h (0 Bft)
07.03.2011 01:20 12,1 C -0,8 C 0,0 UV-I 0,0 C 41 % 71 % 0 % 1031,9 hPa 0,0 l/m 0,0 km/h (0 Bft) 0 min 0 min 0,0 km/h (0 Bft)
07.03.2011 01:22 12,1 C -0,9 C 0,0 UV-I 0,0 C 41 % 71 % 0 % 1031,9 hPa 0,0 l/m 0,0 km/h (0 Bft) 0 min 0 min 0,0 km/h (0 Bft)
07.03.2011 01:24 12,1 C -0,9 C 0,0 UV-I 0,0 C 41 % 71 % 0 % 1031,9 hPa 0,0 l/m 0,0 km/h (0 Bft) 0 min 0 min 0,0 km/h (0 Bft)
07.03.2011 01:26 12,1 C -0,9 C 0,0 UV-I 0,0 C 41 % 71 % 0 % 1031,9 hPa 0,0 l/m 0,0 km/h (0 Bft) 0 min 0 min 0,0 km/h (0 Bft)
07.03.2011 01:28 11,9 C -0,9 C 0,0 UV-I 0,0 C 41 % 71 % 0 % 1031,9 hPa 0,0 l/m 0,0 km/h (0 Bft) 0 min 0 min 0,0 km/h (0 Bft)
07.03.2011 01:30 11,9 C -0,9 C 0,0 UV-I 0,0 C 41 % 71 % 0 % 1031,9 hPa 0,0 l/m 0,0 km/h (0 Bft) 0 min 0 min 0,0 km/h (0 Bft)
07.03.2011 01:32 11,9 C -1,0 C 0,0 UV-I 0,0 C 41 % 71 % 0 % 1031,9 hPa 0,0 l/m 0,0 km/h (0 Bft) 0 min 0 min 0,0 km/h (0 Bft)
07.03.2011 01:34 11,9 C -0,9 C 0,0 UV-I 0,0 C 41 % 72 % 0 % 1031,9 hPa 0,0 l/m 0,0 km/h (0 Bft) 0 min 0 min 0,0 km/h (0 Bft)
07.03.2011 01:36 11,9 C -1,1 C 0,0 UV-I 0,0 C 41 % 72 % 0 % 1031,9 hPa 0,0 l/m 0,0 km/h (0 Bft) 0 min 0 min 0,0 km/h (0 Bft)
07.03.2011 01:38 11,9 C -1,1 C 0,0 UV-I 0,0 C 41 % 72 % 0 % 1031,9 hPa 0,0 l/m 0,0 km/h (0 Bft) 0 min 0 min 0,0 km/h (0 Bft)
07.03.2011 01:40 11,9 C -1,2 C 0,0 UV-I 0,0 C 41 % 72 % 0 % 1031,9 hPa 0,0 l/m 0,0 km/h (0 Bft) 0 min 0 min 0,0 km/h (0 Bft)
07.03.2011 01:42 11,9 C -1,2 C 0,0 UV-I 0,0 C 41 % 72 % 0 % 1031,9 hPa 0,0 l/m 0,0 km/h (0 Bft) 0 min 0 min 0,0 km/h (0 Bft)
07.03.2011 01:44 12,0 C -1,1 C 0,0 UV-I 0,0 C 41 % 72 % 0 % 1031,9 hPa 0,0 l/m 0,0 km/h (0 Bft) 0 min 0 min 0,0 km/h (0 Bft)
07.03.2011 01:46 12,0 C -1,3 C 0,0 UV-I 0,0 C 41 % 73 % 0 % 1031,9 hPa 0,0 l/m 0,0 km/h (0 Bft) 0 min 0 min 0,0 km/h (0 Bft)
07.03.2011 01:48 12,0 C -1,3 C 0,0 UV-I 0,0 C 41 % 73 % 0 % 1031,9 hPa 0,0 l/m 0,0 km/h (0 Bft) 0 min 0 min 0,0 km/h (0 Bft)
07.03.2011 01:50 12,0 C -1,3 C 0,0 UV-I 0,0 C 41 % 73 % 0 % 1031,9 hPa 0,0 l/m 0,0 km/h (0 Bft) 0 min 0 min 0,0 km/h (0 Bft)
07.03.2011 01:52 12,0 C -1,3 C 0,0 UV-I 0,0 C 41 % 73 % 0 % 1031,9 hPa 0,0 l/m 0,0 km/h (0 Bft) 0 min 0 min 0,0 km/h (0 Bft)
07.03.2011 01:54 12,0 C -1,3 C 0,0 UV-I 0,0 C 41 % 73 % 0 % 1031,9 hPa 0,0 l/m 0,0 km/h (0 Bft) 0 min 0 min 0,0 km/h (0 Bft)
07.03.2011 01:56 12,0 C -1,3 C 0,0 UV-I 0,0 C 41 % 73 % 0 % 1031,9 hPa 0,0 l/m 0,0 km/h (0 Bft) 0 min 0 min 0,0 km/h (0 Bft)
07.03.2011 01:58 12,0 C -1,5 C 0,0 UV-I 0,0 C 41 % 73 % 0 % 1031,9 hPa 0,0 l/m 0,0 km/h (0 Bft) 0 min 0 min 0,0 km/h (0 Bft)
07.03.2011 02:00 12,0 C -1,5 C 0,0 UV-I 0,0 C 41 % 73 % 0 % 1031,9 hPa 0,0 l/m 0,0 km/h (0 Bft) 0 min 0 min 0,0 km/h (0 Bft)
07.03.2011 02:02 12,0 C -1,5 C 0,0 UV-I 0,0 C 41 % 73 % 0 % 1031,9 hPa 0,0 l/m 0,0 km/h (0 Bft) 0 min 0 min 0,0 km/h (0 Bft)
07.03.2011 02:04 11,8 C -1,6 C 0,0 UV-I 0,0 C 41 % 73 % 0 % 1031,9 hPa 0,0 l/m 0,0 km/h (0 Bft) 0 min 0 min 0,0 km/h (0 Bft)
07.03.2011 02:06 11,8 C -1,6 C 0,0 UV-I 0,0 C 41 % 74 % 0 % 1031,9 hPa 0,0 l/m 0,0 km/h (0 Bft) 0 min 0 min 0,0 km/h (0 Bft)
07.03.2011 02:08 11,8 C -1,7 C 0,0 UV-I 0,0 C 41 % 74 % 0 % 1031,9 hPa 0,0 l/m 0,0 km/h (0 Bft) 0 min 0 min 0,0 km/h (0 Bft)
07.03.2011 02:10 11,9 C -1,7 C 0,0 UV-I 0,0 C 41 % 74 % 0 % 1031,9 hPa 0,0 l/m 0,0 km/h (0 Bft) 0 min 0 min 0,0 km/h (0 Bft)
07.03.2011 02:12 11,9 C -1,7 C 0,0 UV-I 0,0 C 41 % 74 % 0 % 1031,9 hPa 0,0 l/m 0,0 km/h (0 Bft) 0 min 0 min 0,0 km/h (0 Bft)
07.03.2011 02:14 11,9 C -1,7 C 0,0 UV-I 0,0 C 41 % 74 % 0 % 1031,9 hPa 0,0 l/m 0,0 km/h (0 Bft) 0 min 0 min 0,0 km/h (0 Bft)
07.03.2011 02:16 11,9 C -1,8 C 0,0 UV-I 0,0 C 41 % 74 % 0 % 1031,9 hPa 0,0 l/m 0,0 km/h (0 Bft) 0 min 0 min 0,0 km/h (0 Bft)
07.03.2011 02:18 11,9 C -1,7 C 0,0 UV-I 0,0 C 41 % 74 % 0 % 1031,9 hPa 0,0 l/m 0,0 km/h (0 Bft) 0 min 0 min 0,0 km/h (0 Bft)
07.03.2011 02:20 11,9 C -1,7 C 0,0 UV-I 0,0 C 41 % 74 % 0 % 1031,9 hPa 0,0 l/m 0,0 km/h (0 Bft) 0 min 0 min 0,0 km/h (0 Bft)
07.03.2011 02:22 11,9 C -1,9 C 0,0 UV-I 0,0 C 41 % 74 % 0 % 1031,9 hPa 0,0 l/m 0,0 km/h (0 Bft) 0 min 0 min 0,0 km/h (0 Bft)
07.03.2011 02:24 11,9 C -1,9 C 0,0 UV-I 0,0 C 41 % 74 % 0 % 1031,9 hPa 0,0 l/m 0,0 km/h (0 Bft) 0 min 0 min 0,0 km/h (0 Bft)
07.03.2011 02:26 11,8 C -1,9 C 0,0 UV-I 0,0 C 41 % 74 % 0 % 1031,9 hPa 0,0 l/m 0,0 km/h (0 Bft) 0 min 0 min 0,0 km/h (0 Bft)
07.03.2011 02:28 11,8 C -2,0 C 0,0 UV-I 0,0 C 41 % 74 % 0 % 1031,9 hPa 0,0 l/m 0,0 km/h (0 Bft) 0 min 0 min 0,0 km/h (0 Bft)
07.03.2011 02:30 11,8 C -2,0 C 0,0 UV-I 0,0 C 41 % 75 % 0 % 1031,9 hPa 0,0 l/m 0,0 km/h (0 Bft) 0 min 0 min 0,0 km/h (0 Bft)
07.03.2011 02:32 11,8 C -2,0 C 0,0 UV-I 0,0 C 41 % 75 % 0 % 1031,9 hPa 0,0 l/m 0,0 km/h (0 Bft) 0 min 0 min 0,0 km/h (0 Bft)
07.03.2011 02:34 11,8 C -2,1 C 0,0 UV-I 0,0 C 41 % 75 % 0 % 1031,9 hPa 0,0 l/m 0,0 km/h (0 Bft) 0 min 0 min 0,0 km/h (0 Bft)
07.03.2011 02:36 11,8 C -2,1 C 0,0 UV-I 0,0 C 41 % 75 % 0 % 1031,9 hPa 0,0 l/m 0,0 km/h (0 Bft) 0 min 0 min 0,0 km/h (0 Bft)
07.03.2011 02:38 11,8 C -2,1 C 0,0 UV-I 0,0 C 41 % 75 % 0 % 1031,9 hPa 0,0 l/m 0,0 km/h (0 Bft) 0 min 0 min 0,0 km/h (0 Bft)
07.03.2011 02:40 11,8 C -2,1 C 0,0 UV-I 0,0 C 41 % 75 % 0 % 1031,9 hPa 0,0 l/m 0,0 km/h (0 Bft) 0 min 0 min 0,0 km/h (0 Bft)
07.03.2011 02:42 11,8 C -2,1 C 0,0 UV-I 0,0 C 41 % 75 % 0 % 1031,9 hPa 0,0 l/m 0,0 km/h (0 Bft) 0 min 0 min 0,0 km/h (0 Bft)
07.03.2011 02:44 11,8 C -2,1 C 0,0 UV-I 0,0 C 41 % 75 % 0 % 1031,9 hPa 0,0 l/m 0,0 km/h (0 Bft) 0 min 0 min 0,0 km/h (0 Bft)
07.03.2011 02:46 11,8 C -2,1 C 0,0 UV-I 0,0 C 41 % 76 % 0 % 1031,9 hPa 0,0 l/m 0,0 km/h (0 Bft) 0 min 0 min 0,0 km/h (0 Bft)
07.03.2011 02:48 11,8 C -2,1 C 0,0 UV-I 0,0 C 41 % 76 % 0 % 1031,9 hPa 0,0 l/m 0,0 km/h (0 Bft) 0 min 0 min 0,0 km/h (0 Bft)
07.03.2011 02:50 11,8 C -2,1 C 0,0 UV-I 0,0 C 41 % 76 % 0 % 1031,9 hPa 0,0 l/m 0,0 km/h (0 Bft) 0 min 0 min 0,0 km/h (0 Bft)
07.03.2011 02:52 11,8 C -2,1 C 0,0 UV-I 0,0 C 41 % 76 % 0 % 1031,9 hPa 0,0 l/m 0,0 km/h (0 Bft) 0 min 0 min 0,0 km/h (0 Bft)
07.03.2011 02:54 11,6 C -2,1 C 0,0 UV-I 0,0 C 41 % 76 % 0 % 1031,9 hPa 0,0 l/m 0,0 km/h (0 Bft) 0 min 0 min 0,0 km/h (0 Bft)
07.03.2011 02:56 11,6 C -2,1 C 0,0 UV-I 0,0 C 41 % 76 % 0 % 1031,9 hPa 0,0 l/m 0,0 km/h (0 Bft) 0 min 0 min 0,0 km/h (0 Bft)
07.03.2011 02:58 11,6 C -2,1 C 0,0 UV-I 0,0 C 41 % 76 % 0 % 1031,9 hPa 0,0 l/m 0,0 km/h (0 Bft) 0 min 0 min 0,0 km/h (0 Bft)
07.03.2011 03:00 11,6 C -2,1 C 0,0 UV-I 0,0 C 41 % 76 % 0 % 1031,9 hPa 0,0 l/m 0,0 km/h (0 Bft) 0 min 0 min 0,0 km/h (0 Bft)
07.03.2011 03:02 11,6 C -2,1 C 0,0 UV-I 0,0 C 41 % 76 % 0 % 1031,9 hPa 0,0 l/m 0,0 km/h (0 Bft) 0 min 0 min 0,0 km/h (0 Bft)
07.03.2011 03:04 11,6 C -2,1 C 0,0 UV-I 0,0 C 41 % 76 % 0 % 1031,9 hPa 0,0 l/m 0,0 km/h (0 Bft) 0 min 0 min 0,0 km/h (0 Bft)
07.03.2011 03:06 11,7 C -2,1 C 0,0 UV-I 0,0 C 41 % 76 % 0 % 1031,9 hPa 0,0 l/m 0,0 km/h (0 Bft) 0 min 0 min 0,0 km/h (0 Bft)
07.03.2011 03:08 11,6 C -2,1 C 0,0 UV-I 0,0 C 41 % 76 % 0 % 1031,9 hPa 0,0 l/m 0,0 km/h (0 Bft) 0 min 0 min 0,0 km/h (0 Bft)
07.03.2011 03:10 11,6 C -2,1 C 0,0 UV-I 0,0 C 41 % 76 % 0 % 1031,9 hPa 0,0 l/m 0,0 km/h (0 Bft) 0 min 0 min 0,0 km/h (0 Bft)
07.03.2011 03:12 11,7 C -2,1 C 0,0 UV-I 0,0 C 41 % 76 % 0 % 1031,9 hPa 0,0 l/m 0,0 km/h (0 Bft) 0 min 0 min 0,0 km/h (0 Bft)
07.03.2011 03:14 11,7 C -2,1 C 0,0 UV-I 0,0 C 41 % 77 % 0 % 1031,9 hPa 0,0 l/m 0,0 km/h (0 Bft) 0 min 0 min 0,0 km/h (0 Bft)
07.03.2011 03:16 11,6 C -2,1 C 0,0 UV-I 0,0 C 41 % 77 % 0 % 1031,9 hPa 0,0 l/m 0,0 km/h (0 Bft) 0 min 0 min 0,0 km/h (0 Bft)
07.03.2011 03:18 11,7 C -2,1 C 0,0 UV-I 0,0 C 41 % 77 % 0 % 1031,9 hPa 0,0 l/m 0,0 km/h (0 Bft) 0 min 0 min 0,0 km/h (0 Bft)
07.03.2011 03:20 11,6 C -2,1 C 0,0 UV-I 0,0 C 41 % 77 % 0 % 1031,9 hPa 0,0 l/m 0,0 km/h (0 Bft) 0 min 0 min 0,0 km/h (0 Bft)
07.03.2011 03:22 11,6 C -2,1 C 0,0 UV-I 0,0 C 41 % 77 % 0 % 1031,9 hPa 0,0 l/m 0,0 km/h (0 Bft) 0 min 0 min 0,0 km/h (0 Bft)
07.03.2011 03:24 11,7 C -2,1 C 0,0 UV-I 0,0 C 41 % 77 % 0 % 1031,9 hPa 0,0 l/m 0,0 km/h (0 Bft) 0 min 0 min 0,0 km/h (0 Bft)
07.03.2011 03:26 11,6 C -2,1 C 0,0 UV-I 0,0 C 41 % 77 % 0 % 1032,1 hPa 0,0 l/m 0,0 km/h (0 Bft) 0 min 0 min 0,0 km/h (0 Bft)
07.03.2011 03:28 11,6 C -2,0 C 0,0 UV-I 0,0 C 41 % 77 % 0 % 1032,1 hPa 0,0 l/m 0,0 km/h (0 Bft) 0 min 0 min 0,0 km/h (0 Bft)
07.03.2011 03:30 11,6 C -2,0 C 0,0 UV-I 0,0 C 41 % 77 % 0 % 1032,1 hPa 0,0 l/m 0,0 km/h (0 Bft) 0 min 0 min 0,0 km/h (0 Bft)
07.03.2011 03:32 11,6 C -1,9 C 0,0 UV-I 0,0 C 41 % 77 % 0 % 1032,1 hPa 0,0 l/m 0,0 km/h (0 Bft) 0 min 0 min 0,0 km/h (0 Bft)
07.03.2011 03:34 11,6 C -1,9 C 0,0 UV-I 0,0 C 41 % 77 % 0 % 1032,1 hPa 0,0 l/m 0,0 km/h (0 Bft) 0 min 0 min 0,0 km/h (0 Bft)
07.03.2011 03:36 11,6 C -1,9 C 0,0 UV-I 0,0 C 41 % 77 % 0 % 1032,1 hPa 0,0 l/m 0,0 km/h (0 Bft) 0 min 0 min 0,0 km/h (0 Bft)
07.03.2011 03:38 11,6 C -1,9 C 0,0 UV-I 0,0 C 41 % 77 % 0 % 1032,1 hPa 0,0 l/m 0,0 km/h (0 Bft) 0 min 0 min 0,0 km/h (0 Bft)
07.03.2011 03:40 11,6 C -1,9 C 0,0 UV-I 0,0 C 41 % 76 % 0 % 1032,1 hPa 0,0 l/m 0,0 km/h (0 Bft) 0 min 0 min 0,0 km/h (0 Bft)
07.03.2011 03:42 11,6 C -1,7 C 0,0 UV-I 0,0 C 41 % 76 % 0 % 1032,1 hPa 0,0 l/m 0,0 km/h (0 Bft) 0 min 0 min 0,0 km/h (0 Bft)
07.03.2011 03:44 11,6 C -1,7 C 0,0 UV-I 0,0 C 41 % 76 % 0 % 1032,1 hPa 0,0 l/m 0,0 km/h (0 Bft) 0 min 0 min 3,5 km/h (1 Bft)
07.03.2011 03:46 11,6 C -1,7 C 0,0 UV-I 0,0 C 41 % 76 % 0 % 1032,1 hPa 0,0 l/m 0,0 km/h (0 Bft) 0 min 0 min 0,0 km/h (0 Bft)
07.03.2011 03:48 11,6 C -1,7 C 0,0 UV-I 0,0 C 41 % 76 % 0 % 1032,1 hPa 0,0 l/m 0,0 km/h (0 Bft) 0 min 0 min 0,0 km/h (0 Bft)
07.03.2011 03:50 11,6 C -1,7 C 0,0 UV-I 0,0 C 41 % 76 % 0 % 1032,1 hPa 0,0 l/m 0,0 km/h (0 Bft) 0 min 0 min 0,0 km/h (0 Bft)
07.03.2011 03:52 11,6 C -1,7 C 0,0 UV-I 0,0 C 41 % 76 % 0 % 1032,1 hPa 0,0 l/m 0,0 km/h (0 Bft) 0 min 0 min 0,0 km/h (0 Bft)
07.03.2011 03:54 11,6 C -1,7 C 0,0 UV-I 0,0 C 41 % 76 % 0 % 1032,1 hPa 0,0 l/m 0,0 km/h (0 Bft) 0 min 0 min 0,0 km/h (0 Bft)
07.03.2011 03:56 11,6 C -1,7 C 0,0 UV-I 0,0 C 41 % 76 % 0 % 1032,1 hPa 0,0 l/m 0,0 km/h (0 Bft) 0 min 0 min 0,0 km/h (0 Bft)
07.03.2011 03:58 11,6 C -1,7 C 0,0 UV-I 0,0 C 41 % 76 % 0 % 1032,1 hPa 0,0 l/m 0,0 km/h (0 Bft) 0 min 0 min 0,0 km/h (0 Bft)
07.03.2011 04:00 11,6 C -1,7 C 0,0 UV-I 0,0 C 41 % 76 % 0 % 1032,1 hPa 0,0 l/m 0,0 km/h (0 Bft) 0 min 0 min 0,0 km/h (0 Bft)
07.03.2011 04:02 11,6 C -1,7 C 0,0 UV-I 0,0 C 41 % 76 % 0 % 1032,1 hPa 0,0 l/m 0,0 km/h (0 Bft) 0 min 0 min 0,0 km/h (0 Bft)
07.03.2011 04:04 11,6 C -1,9 C 0,0 UV-I 0,0 C 41 % 76 % 0 % 1032,1 hPa 0,0 l/m 0,0 km/h (0 Bft) 0 min 0 min 0,0 km/h (0 Bft)
07.03.2011 04:06 11,6 C -1,7 C 0,0 UV-I 0,0 C 41 % 76 % 0 % 1031,9 hPa 0,0 l/m 0,0 km/h (0 Bft) 0 min 0 min 0,0 km/h (0 Bft)
07.03.2011 04:08 11,6 C -1,7 C 0,0 UV-I 0,0 C 41 % 76 % 0 % 1031,9 hPa 0,0 l/m 0,0 km/h (0 Bft) 0 min 0 min 0,0 km/h (0 Bft)
07.03.2011 04:10 11,6 C -1,9 C 0,0 UV-I 0,0 C 41 % 76 % 0 % 1031,9 hPa 0,0 l/m 0,0 km/h (0 Bft) 0 min 0 min 0,0 km/h (0 Bft)
07.03.2011 04:12 11,6 C -1,9 C 0,0 UV-I 0,0 C 41 % 76 % 0 % 1031,9 hPa 0,0 l/m 0,0 km/h (0 Bft) 0 min 0 min 0,0 km/h (0 Bft)
07.03.2011 04:14 11,6 C -1,9 C 0,0 UV-I 0,0 C 41 % 76 % 0 % 1031,9 hPa 0,0 l/m 0,0 km/h (0 Bft) 0 min 0 min 0,0 km/h (0 Bft)
07.03.2011 04:16 11,5 C -1,9 C 0,0 UV-I 0,0 C 41 % 76 % 0 % 1031,9 hPa 0,0 l/m 0,0 km/h (0 Bft) 0 min 0 min 0,0 km/h (0 Bft)
07.03.2011 04:18 11,4 C -1,9 C 0,0 UV-I 0,0 C 41 % 76 % 0 % 1031,9 hPa 0,0 l/m 0,0 km/h (0 Bft) 0 min 0 min 0,0 km/h (0 Bft)
07.03.2011 04:20 11,5 C -1,9 C 0,0 UV-I 0,0 C 41 % 76 % 0 % 1031,9 hPa 0,0 l/m 0,0 km/h (0 Bft) 0 min 0 min 0,0 km/h (0 Bft)
07.03.2011 04:22 11,4 C -1,9 C 0,0 UV-I 0,0 C 41 % 76 % 0 % 1031,9 hPa 0,0 l/m 0,0 km/h (0 Bft) 0 min 0 min 0,0 km/h (0 Bft)
07.03.2011 04:24 11,4 C -1,9 C 0,0 UV-I 0,0 C 41 % 76 % 0 % 1031,9 hPa 0,0 l/m 0,0 km/h (0 Bft) 0 min 0 min 0,0 km/h (0 Bft)
07.03.2011 04:26 11,5 C -1,9 C 0,0 UV-I 0,0 C 41 % 76 % 0 % 1032,0 hPa 0,0 l/m 0,0 km/h (0 Bft) 0 min 0 min 0,0 km/h (0 Bft)
07.03.2011 04:28 11,5 C -1,9 C 0,0 UV-I 0,0 C 41 % 76 % 0 % 1032,0 hPa 0,0 l/m 0,0 km/h (0 Bft) 0 min 0 min 0,0 km/h (0 Bft)
07.03.2011 04:30 11,5 C -1,9 C 0,0 UV-I 0,0 C 41 % 76 % 0 % 1032,0 hPa 0,0 l/m 0,0 km/h (0 Bft) 0 min 0 min 0,0 km/h (0 Bft)
07.03.2011 04:32 11,5 C -1,9 C 0,0 UV-I 0,0 C 41 % 76 % 0 % 1032,0 hPa 0,0 l/m 0,0 km/h (0 Bft) 0 min 0 min 0,0 km/h (0 Bft)
07.03.2011 04:34 11,5 C -1,9 C 0,0 UV-I 0,0 C 41 % 76 % 0 % 1032,0 hPa 0,0 l/m 0,0 km/h (0 Bft) 0 min 0 min 0,0 km/h (0 Bft)
07.03.2011 04:36 11,5 C -1,9 C 0,0 UV-I 0,0 C 41 % 76 % 0 % 1032,0 hPa 0,0 l/m 0,0 km/h (0 Bft) 0 min 0 min 0,0 km/h (0 Bft)
07.03.2011 04:38 11,5 C -1,9 C 0,0 UV-I 0,0 C 41 % 76 % 0 % 1032,0 hPa 0,0 l/m 0,0 km/h (0 Bft) 0 min 0 min 0,0 km/h (0 Bft)
07.03.2011 04:40 11,5 C -1,9 C 0,0 UV-I 0,0 C 41 % 76 % 0 % 1032,0 hPa 0,0 l/m 0,0 km/h (0 Bft) 0 min 0 min 0,0 km/h (0 Bft)
07.03.2011 04:42 11,5 C -1,9 C 0,0 UV-I 0,0 C 41 % 76 % 0 % 1032,0 hPa 0,0 l/m 0,0 km/h (0 Bft) 0 min 0 min 0,0 km/h (0 Bft)
07.03.2011 04:44 11,5 C -2,0 C 0,0 UV-I 0,0 C 41 % 76 % 0 % 1032,0 hPa 0,0 l/m 0,0 km/h (0 Bft) 0 min 0 min 0,0 km/h (0 Bft)
07.03.2011 04:46 11,5 C -2,0 C 0,0 UV-I 0,0 C 41 % 76 % 0 % 1032,0 hPa 0,0 l/m 0,0 km/h (0 Bft) 0 min 0 min 0,0 km/h (0 Bft)
07.03.2011 04:48 11,3 C -2,0 C 0,0 UV-I 0,0 C 41 % 76 % 0 % 1032,0 hPa 0,0 l/m 0,0 km/h (0 Bft) 0 min 0 min 0,0 km/h (0 Bft)
07.03.2011 04:50 11,3 C -2,0 C 0,0 UV-I 0,0 C 41 % 76 % 0 % 1032,0 hPa 0,0 l/m 0,0 km/h (0 Bft) 0 min 0 min 0,0 km/h (0 Bft)
07.03.2011 04:52 11,3 C -2,1 C 0,0 UV-I 0,0 C 41 % 76 % 0 % 1032,0 hPa 0,0 l/m 0,0 km/h (0 Bft) 0 min 0 min 0,0 km/h (0 Bft)
07.03.2011 04:54 11,5 C -2,1 C 0,0 UV-I 0,0 C 41 % 76 % 0 % 1032,0 hPa 0,0 l/m 0,0 km/h (0 Bft) 0 min 0 min 0,0 km/h (0 Bft)
07.03.2011 04:56 11,3 C -2,1 C 0,0 UV-I 0,0 C 41 % 76 % 0 % 1032,0 hPa 0,0 l/m 0,0 km/h (0 Bft) 0 min 0 min 0,0 km/h (0 Bft)
07.03.2011 04:58 11,3 C -2,1 C 0,0 UV-I 0,0 C 41 % 76 % 0 % 1032,0 hPa 0,0 l/m 0,0 km/h (0 Bft) 0 min 0 min 0,0 km/h (0 Bft)
07.03.2011 05:00 11,4 C -2,2 C 0,0 UV-I 0,0 C 41 % 76 % 0 % 1032,0 hPa 0,0 l/m 0,0 km/h (0 Bft) 0 min 0 min 0,0 km/h (0 Bft)
07.03.2011 05:02 11,4 C -2,1 C 0,0 UV-I 0,0 C 41 % 76 % 0 % 1032,0 hPa 0,0 l/m 0,0 km/h (0 Bft) 0 min 0 min 0,0 km/h (0 Bft)
07.03.2011 05:04 11,4 C -2,1 C 0,0 UV-I 0,0 C 41 % 76 % 0 % 1032,0 hPa 0,0 l/m 0,0 km/h (0 Bft) 0 min 0 min 0,0 km/h (0 Bft)
07.03.2011 05:06 11,4 C -2,3 C 0,0 UV-I 0,0 C 41 % 76 % 0 % 1032,0 hPa 0,0 l/m 0,0 km/h (0 Bft) 0 min 0 min 0,0 km/h (0 Bft)
07.03.2011 05:08 11,3 C -2,4 C 0,0 UV-I 0,0 C 41 % 76 % 0 % 1032,0 hPa 0,0 l/m 0,0 km/h (0 Bft) 0 min 0 min 0,0 km/h (0 Bft)
07.03.2011 05:10 11,4 C -2,4 C 0,0 UV-I 0,0 C 41 % 77 % 0 % 1032,0 hPa 0,0 l/m 0,0 km/h (0 Bft) 0 min 0 min 0,0 km/h (0 Bft)
07.03.2011 05:12 11,4 C -2,3 C 0,0 UV-I 0,0 C 41 % 77 % 0 % 1032,0 hPa 0,0 l/m 0,0 km/h (0 Bft) 0 min 0 min 0,0 km/h (0 Bft)
07.03.2011 05:14 11,4 C -2,5 C 0,0 UV-I 0,0 C 41 % 77 % 0 % 1032,0 hPa 0,0 l/m 0,0 km/h (0 Bft) 0 min 0 min 0,0 km/h (0 Bft)
07.03.2011 05:16 11,4 C -2,5 C 0,0 UV-I 0,0 C 41 % 77 % 0 % 1032,0 hPa 0,0 l/m 0,0 km/h (0 Bft) 0 min 0 min 0,0 km/h (0 Bft)
07.03.2011 05:18 11,4 C -2,5 C 0,0 UV-I 0,0 C 41 % 77 % 0 % 1032,0 hPa 0,0 l/m 0,0 km/h (0 Bft) 0 min 0 min 0,0 km/h (0 Bft)
07.03.2011 05:20 11,4 C -2,5 C 0,0 UV-I 0,0 C 41 % 77 % 0 % 1032,0 hPa 0,0 l/m 0,0 km/h (0 Bft) 0 min 0 min 0,0 km/h (0 Bft)
07.03.2011 05:22 11,4 C -2,6 C 0,0 UV-I 0,0 C 41 % 77 % 0 % 1032,0 hPa 0,0 l/m 0,0 km/h (0 Bft) 0 min 0 min 0,0 km/h (0 Bft)
07.03.2011 05:24 11,4 C -2,5 C 0,0 UV-I 0,0 C 41 % 77 % 0 % 1032,0 hPa 0,0 l/m 0,0 km/h (0 Bft) 0 min 0 min 0,0 km/h (0 Bft)
07.03.2011 05:26 11,4 C -2,7 C 0,0 UV-I 0,0 C 41 % 77 % 0 % 1032,0 hPa 0,0 l/m 0,0 km/h (0 Bft) 0 min 0 min 0,0 km/h (0 Bft)
07.03.2011 05:28 11,2 C -2,7 C 0,0 UV-I 0,0 C 41 % 77 % 0 % 1032,0 hPa 0,0 l/m 0,0 km/h (0 Bft) 0 min 0 min 0,0 km/h (0 Bft)
07.03.2011 05:30 11,4 C -2,7 C 0,0 UV-I 0,0 C 41 % 77 % 0 % 1032,0 hPa 0,0 l/m 0,0 km/h (0 Bft) 0 min 0 min 0,0 km/h (0 Bft)
07.03.2011 05:32 11,2 C -2,7 C 0,0 UV-I 0,0 C 41 % 77 % 0 % 1032,0 hPa 0,0 l/m 0,0 km/h (0 Bft) 0 min 0 min 0,0 km/h (0 Bft)
07.03.2011 05:34 11,2 C -2,8 C 0,0 UV-I 0,0 C 41 % 77 % 0 % 1032,0 hPa 0,0 l/m 0,0 km/h (0 Bft) 0 min 0 min 0,0 km/h (0 Bft)
07.03.2011 05:36 11,2 C -2,8 C 0,0 UV-I 0,0 C 41 % 77 % 0 % 1032,0 hPa 0,0 l/m 0,0 km/h (0 Bft) 0 min 0 min 0,0 km/h (0 Bft)
07.03.2011 05:38 11,2 C -2,9 C 0,0 UV-I 0,0 C 41 % 77 % 0 % 1032,0 hPa 0,0 l/m 0,0 km/h (0 Bft) 0 min 0 min 0,0 km/h (0 Bft)
07.03.2011 05:40 11,2 C -2,9 C 0,0 UV-I 0,0 C 41 % 77 % 0 % 1032,0 hPa 0,0 l/m 0,0 km/h (0 Bft) 0 min 0 min 0,0 km/h (0 Bft)
07.03.2011 05:42 11,2 C -2,9 C 0,0 UV-I 0,0 C 41 % 77 % 0 % 1032,0 hPa 0,0 l/m 0,0 km/h (0 Bft) 0 min 0 min 0,0 km/h (0 Bft)
07.03.2011 05:44 11,2 C -2,9 C 0,0 UV-I 0,0 C 41 % 78 % 0 % 1032,0 hPa 0,0 l/m 0,0 km/h (0 Bft) 0 min 0 min 0,0 km/h (0 Bft)
07.03.2011 05:46 11,2 C -2,9 C 0,0 UV-I 0,0 C 41 % 78 % 0 % 1032,3 hPa 0,0 l/m 0,0 km/h (0 Bft) 0 min 0 min 0,0 km/h (0 Bft)
07.03.2011 05:48 11,2 C -3,0 C 0,0 UV-I 0,0 C 41 % 78 % 0 % 1032,3 hPa 0,0 l/m 0,0 km/h (0 Bft) 0 min 0 min 0,0 km/h (0 Bft)
07.03.2011 05:50 11,2 C -3,0 C 0,0 UV-I 0,0 C 41 % 78 % 0 % 1032,3 hPa 0,0 l/m 0,0 km/h (0 Bft) 0 min 0 min 0,0 km/h (0 Bft)
07.03.2011 05:52 11,2 C -2,9 C 0,0 UV-I 0,0 C 41 % 78 % 0 % 1032,3 hPa 0,0 l/m 0,0 km/h (0 Bft) 0 min 0 min 0,0 km/h (0 Bft)
07.03.2011 05:54 11,3 C -3,0 C 0,0 UV-I 0,0 C 41 % 78 % 0 % 1032,3 hPa 0,0 l/m 0,0 km/h (0 Bft) 0 min 0 min 0,0 km/h (0 Bft)
07.03.2011 05:56 11,3 C -2,9 C 0,0 UV-I 0,0 C 41 % 78 % 0 % 1032,3 hPa 0,0 l/m 0,0 km/h (0 Bft) 0 min 0 min 0,0 km/h (0 Bft)
07.03.2011 05:58 11,3 C -2,9 C 0,0 UV-I 0,0 C 41 % 78 % 0 % 1032,3 hPa 0,0 l/m 0,0 km/h (0 Bft) 0 min 0 min 0,0 km/h (0 Bft)
07.03.2011 06:00 11,3 C -2,9 C 0,0 UV-I 0,0 C 41 % 78 % 0 % 1032,3 hPa 0,0 l/m 0,0 km/h (0 Bft) 0 min 0 min 0,0 km/h (0 Bft)
07.03.2011 06:02 11,3 C -2,9 C 0,0 UV-I 0,0 C 41 % 79 % 0 % 1032,3 hPa 0,0 l/m 0,0 km/h (0 Bft) 0 min 0 min 0,0 km/h (0 Bft)
07.03.2011 06:04 11,1 C -2,9 C 0,0 UV-I 0,0 C 41 % 78 % 0 % 1032,3 hPa 0,0 l/m 0,0 km/h (0 Bft) 0 min 0 min 0,0 km/h (0 Bft)
07.03.2011 06:06 11,1 C -2,7 C 0,0 UV-I 0,0 C 41 % 78 % 0 % 1032,3 hPa 0,0 l/m 0,0 km/h (0 Bft) 0 min 0 min 0,0 km/h (0 Bft)
07.03.2011 06:08 11,1 C -2,8 C 0,0 UV-I 0,0 C 41 % 78 % 0 % 1032,3 hPa 0,0 l/m 0,0 km/h (0 Bft) 0 min 0 min 0,0 km/h (0 Bft)
07.03.2011 06:10 11,1 C -2,7 C 0,0 UV-I 0,0 C 41 % 78 % 0 % 1032,3 hPa 0,0 l/m 0,0 km/h (0 Bft) 0 min 0 min 0,0 km/h (0 Bft)
07.03.2011 06:12 11,1 C -2,7 C 0,0 UV-I 0,0 C 41 % 78 % 0 % 1032,3 hPa 0,0 l/m 0,0 km/h (0 Bft) 0 min 0 min 0,0 km/h (0 Bft)
07.03.2011 06:14 11,1 C -2,5 C 0,0 UV-I 0,0 C 41 % 78 % 0 % 1032,3 hPa 0,0 l/m 0,0 km/h (0 Bft) 0 min 0 min 3,9 km/h (1 Bft)
07.03.2011 06:16 11,1 C -2,5 C 0,0 UV-I 0,0 C 41 % 78 % 0 % 1032,3 hPa 0,0 l/m 0,0 km/h (0 Bft) 0 min 0 min 0,0 km/h (0 Bft)
07.03.2011 06:18 11,2 C -2,5 C 0,0 UV-I 0,0 C 41 % 78 % 0 % 1032,3 hPa 0,0 l/m 0,0 km/h (0 Bft) 0 min 0 min 0,0 km/h (0 Bft)
07.03.2011 06:20 11,1 C -2,5 C 0,0 UV-I 0,0 C 41 % 78 % 0 % 1032,3 hPa 0,0 l/m 0,0 km/h (0 Bft) 0 min 0 min 4,5 km/h (1 Bft)
07.03.2011 06:22 11,1 C -2,4 C 0,0 UV-I 0,0 C 41 % 78 % 0 % 1032,3 hPa 0,0 l/m 0,4 km/h (0 Bft) 0 min 0 min 0,0 km/h (0 Bft)
07.03.2011 06:24 11,2 C -2,3 C 0,0 UV-I 0,0 C 41 % 77 % 0 % 1032,3 hPa 0,0 l/m 0,4 km/h (0 Bft) 0 min 0 min 4,5 km/h (1 Bft)
07.03.2011 06:26 11,2 C -2,3 C 0,0 UV-I 0,0 C 41 % 77 % 0 % 1032,5 hPa 0,0 l/m 0,0 km/h (0 Bft) 0 min 0 min 0,0 km/h (0 Bft)
07.03.2011 06:28 11,2 C -2,1 C 0,0 UV-I 0,0 C 41 % 77 % 0 % 1032,5 hPa 0,0 l/m 0,0 km/h (0 Bft) 0 min 0 min 0,0 km/h (0 Bft)
07.03.2011 06:30 11,2 C -2,1 C 0,0 UV-I 0,0 C 41 % 77 % 0 % 1032,5 hPa 0,0 l/m 0,0 km/h (0 Bft) 0 min 0 min 0,0 km/h (0 Bft)
07.03.2011 06:32 11,2 C -2,2 C 0,0 UV-I 0,0 C 41 % 77 % 0 % 1032,5 hPa 0,0 l/m 0,0 km/h (0 Bft) 0 min 0 min 0,0 km/h (0 Bft)
07.03.2011 06:34 11,2 C -2,2 C 0,0 UV-I 0,0 C 41 % 77 % 0 % 1032,5 hPa 0,0 l/m 0,0 km/h (0 Bft) 0 min 0 min 0,0 km/h (0 Bft)
07.03.2011 06:36 11,2 C -2,1 C 0,0 UV-I 0,0 C 41 % 77 % 0 % 1032,5 hPa 0,0 l/m 0,0 km/h (0 Bft) 0 min 0 min 0,0 km/h (0 Bft)
07.03.2011 06:38 11,2 C -2,2 C 0,0 UV-I 0,0 C 41 % 77 % 0 % 1032,5 hPa 0,0 l/m 0,0 km/h (0 Bft) 0 min 0 min 0,0 km/h (0 Bft)
07.03.2011 06:40 11,2 C -2,2 C 0,0 UV-I 0,0 C 41 % 77 % 0 % 1032,5 hPa 0,0 l/m 0,0 km/h (0 Bft) 0 min 0 min 0,0 km/h (0 Bft)
07.03.2011 06:42 11,2 C -2,1 C 0,0 UV-I 0,0 C 41 % 77 % 0 % 1032,5 hPa 0,0 l/m 0,0 km/h (0 Bft) 0 min 0 min 0,0 km/h (0 Bft)
07.03.2011 06:44 11,2 C -2,1 C 0,0 UV-I 0,0 C 41 % 77 % 0 % 1032,5 hPa 0,0 l/m 0,0 km/h (0 Bft) 0 min 0 min 0,0 km/h (0 Bft)
07.03.2011 06:46 11,2 C -2,1 C 0,0 UV-I 0,0 C 41 % 77 % 0 % 1032,5 hPa 0,0 l/m 0,0 km/h (0 Bft) 0 min 0 min 0,0 km/h (0 Bft)
07.03.2011 06:48 11,2 C -2,0 C 0,0 UV-I 0,0 C 41 % 77 % 0 % 1032,5 hPa 0,0 l/m 0,0 km/h (0 Bft) 0 min 0 min 0,0 km/h (0 Bft)
07.03.2011 06:50 11,2 C -1,9 C 0,0 UV-I 0,0 C 41 % 76 % 0 % 1032,5 hPa 0,0 l/m 0,0 km/h (0 Bft) 0 min 0 min 0,0 km/h (0 Bft)
07.03.2011 06:52 11,2 C -1,7 C 0,0 UV-I 0,0 C 41 % 76 % 0 % 1032,5 hPa 0,0 l/m 0,0 km/h (0 Bft) 0 min 0 min 0,0 km/h (0 Bft)
07.03.2011 06:54 11,2 C -1,7 C 0,0 UV-I 0,0 C 41 % 76 % 0 % 1032,5 hPa 0,0 l/m 0,0 km/h (0 Bft) 0 min 0 min 0,0 km/h (0 Bft)
07.03.2011 06:56 11,2 C -1,7 C 0,0 UV-I 0,0 C 41 % 76 % 0 % 1032,5 hPa 0,0 l/m 0,0 km/h (0 Bft) 0 min 0 min 0,0 km/h (0 Bft)
07.03.2011 06:58 11,2 C -1,6 C 0,0 UV-I 0,0 C 41 % 75 % 0 % 1032,5 hPa 0,0 l/m 0,0 km/h (0 Bft) 0 min 0 min 0,0 km/h (0 Bft)
07.03.2011 07:00 11,2 C -1,5 C 0,0 UV-I 0,0 C 41 % 75 % 0 % 1032,5 hPa 0,0 l/m 0,0 km/h (0 Bft) 0 min 0 min 0,0 km/h (0 Bft)
07.03.2011 07:02 11,2 C -1,5 C 0,0 UV-I 0,0 C 41 % 75 % 0 % 1032,5 hPa 0,0 l/m 0,0 km/h (0 Bft) 0 min 0 min 0,0 km/h (0 Bft)
07.03.2011 07:04 11,2 C -1,5 C 0,0 UV-I 0,0 C 41 % 75 % 0 % 1032,5 hPa 0,0 l/m 0,0 km/h (0 Bft) 0 min 0 min 0,0 km/h (0 Bft)
07.03.2011 07:06 11,1 C -1,5 C 0,0 UV-I 0,0 C 41 % 75 % 0 % 1032,5 hPa 0,0 l/m 0,0 km/h (0 Bft) 0 min 0 min 0,0 km/h (0 Bft)
07.03.2011 07:08 11,1 C -1,6 C 0,0 UV-I 0,0 C 41 % 74 % 0 % 1032,5 hPa 0,0 l/m 0,4 km/h (0 Bft) 0 min 0 min 4,5 km/h (1 Bft)
07.03.2011 07:10 11,1 C -1,6 C 0,0 UV-I 0,0 C 41 % 74 % 0 % 1032,5 hPa 0,0 l/m 0,4 km/h (0 Bft) 0 min 0 min 0,0 km/h (0 Bft)
07.03.2011 07:12 11,1 C -1,6 C 0,0 UV-I 0,0 C 41 % 74 % 0 % 1032,5 hPa 0,0 l/m 0,4 km/h (0 Bft) 0 min 0 min 0,0 km/h (0 Bft)
07.03.2011 07:14 11,1 C -1,6 C 0,0 UV-I 0,0 C 41 % 74 % 0 % 1032,5 hPa 0,0 l/m 0,4 km/h (0 Bft) 0 min 0 min 0,0 km/h (0 Bft)
07.03.2011 07:16 11,1 C -1,6 C 0,0 UV-I 0,0 C 40 % 74 % 0 % 1032,5 hPa 0,0 l/m 0,4 km/h (0 Bft) 0 min 0 min 0,0 km/h (0 Bft)
07.03.2011 07:18 11,1 C -1,6 C 0,0 UV-I 0,0 C 41 % 74 % 0 % 1032,5 hPa 0,0 l/m 0,0 km/h (0 Bft) 0 min 0 min 0,0 km/h (0 Bft)
07.03.2011 07:20 11,1 C -1,6 C 0,0 UV-I 0,0 C 40 % 74 % 0 % 1032,5 hPa 0,0 l/m 0,0 km/h (0 Bft) 0 min 0 min 0,0 km/h (0 Bft)
07.03.2011 07:22 11,1 C -1,6 C 0,0 UV-I 0,0 C 40 % 74 % 0 % 1032,5 hPa 0,0 l/m 0,0 km/h (0 Bft) 0 min 0 min 0,0 km/h (0 Bft)
07.03.2011 07:24 11,1 C -1,5 C 0,0 UV-I 0,0 C 40 % 74 % 0 % 1032,5 hPa 0,0 l/m 0,0 km/h (0 Bft) 0 min 0 min 5,1 km/h (1 Bft)
07.03.2011 07:26 11,1 C -1,5 C 0,0 UV-I 0,0 C 40 % 74 % 0 % 1032,6 hPa 0,0 l/m 0,0 km/h (0 Bft) 0 min 0 min 0,0 km/h (0 Bft)
07.03.2011 07:28 11,1 C -1,5 C 0,0 UV-I 0,0 C 40 % 73 % 0 % 1032,6 hPa 0,0 l/m 0,0 km/h (0 Bft) 0 min 0 min 0,0 km/h (0 Bft)
07.03.2011 07:30 11,1 C -1,3 C 0,0 UV-I 0,0 C 40 % 73 % 0 % 1032,6 hPa 0,0 l/m 0,0 km/h (0 Bft) 0 min 0 min 0,0 km/h (0 Bft)
07.03.2011 07:32 11,1 C -1,3 C 0,0 UV-I 0,0 C 40 % 73 % 0 % 1032,6 hPa 0,0 l/m 0,0 km/h (0 Bft) 0 min 0 min 0,0 km/h (0 Bft)
07.03.2011 07:34 11,1 C -1,3 C 0,0 UV-I 0,0 C 40 % 73 % 0 % 1032,6 hPa 0,0 l/m 0,0 km/h (0 Bft) 0 min 0 min 0,0 km/h (0 Bft)
07.03.2011 07:36 11,1 C -1,3 C 0,0 UV-I 0,0 C 40 % 73 % 0 % 1032,6 hPa 0,0 l/m 0,0 km/h (0 Bft) 0 min 0 min 0,0 km/h (0 Bft)
07.03.2011 07:38 11,1 C -1,3 C 0,0 UV-I 0,0 C 40 % 73 % 0 % 1032,6 hPa 0,0 l/m 0,0 km/h (0 Bft) 0 min 0 min 0,0 km/h (0 Bft)
07.03.2011 07:40 11,1 C -1,4 C 0,0 UV-I 0,0 C 40 % 73 % 0 % 1032,6 hPa 0,0 l/m 0,0 km/h (0 Bft) 0 min 0 min 0,0 km/h (0 Bft)
07.03.2011 07:42 11,1 C -1,3 C 0,0 UV-I 0,0 C 40 % 73 % 0 % 1032,6 hPa 0,0 l/m 0,0 km/h (0 Bft) 0 min 0 min 0,0 km/h (0 Bft)
07.03.2011 07:44 11,1 C -1,3 C 0,0 UV-I 0,0 C 40 % 73 % 0 % 1032,6 hPa 0,0 l/m 0,0 km/h (0 Bft) 0 min 0 min 0,0 km/h (0 Bft)
07.03.2011 07:46 11,1 C -1,5 C 0,0 UV-I 0,0 C 40 % 73 % 0 % 1032,6 hPa 0,0 l/m 0,0 km/h (0 Bft) 0 min 0 min 0,0 km/h (0 Bft)
07.03.2011 07:48 11,1 C -1,5 C 0,0 UV-I 0,0 C 40 % 73 % 0 % 1032,6 hPa 0,0 l/m 0,0 km/h (0 Bft) 0 min 0 min 0,0 km/h (0 Bft)
07.03.2011 07:50 11,1 C -1,5 C 0,0 UV-I 0,0 C 40 % 73 % 0 % 1032,6 hPa 0,0 l/m 0,0 km/h (0 Bft) 0 min 0 min 0,0 km/h (0 Bft)
07.03.2011 07:52 11,1 C -1,3 C 0,0 UV-I 0,0 C 40 % 73 % 0 % 1032,6 hPa 0,0 l/m 0,0 km/h (0 Bft) 0 min 0 min 0,0 km/h (0 Bft)
07.03.2011 07:54 11,1 C -1,3 C 0,0 UV-I 0,0 C 40 % 73 % 0 % 1032,6 hPa 0,0 l/m 0,0 km/h (0 Bft) 0 min 0 min 0,0 km/h (0 Bft)
07.03.2011 07:56 11,1 C -1,3 C 0,0 UV-I 0,0 C 40 % 73 % 0 % 1032,6 hPa 0,0 l/m 0,0 km/h (0 Bft) 0 min 0 min 0,0 km/h (0 Bft)
07.03.2011 07:58 11,1 C -1,3 C 0,0 UV-I 0,0 C 40 % 72 % 0 % 1032,6 hPa 0,0 l/m 0,0 km/h (0 Bft) 0 min 0 min 0,0 km/h (0 Bft)
07.03.2011 08:00 11,1 C -1,3 C 0,0 UV-I 0,0 C 40 % 72 % 0 % 1032,6 hPa 0,0 l/m 0,0 km/h (0 Bft) 0 min 0 min 0,0 km/h (0 Bft)
07.03.2011 08:02 11,1 C -1,3 C 0,0 UV-I 0,0 C 40 % 72 % 0 % 1032,6 hPa 0,0 l/m 0,0 km/h (0 Bft) 0 min 0 min 0,0 km/h (0 Bft)
07.03.2011 08:04 10,9 C -1,3 C 0,0 UV-I 0,0 C 40 % 72 % 0 % 1032,6 hPa 0,0 l/m 0,0 km/h (0 Bft) 0 min 0 min 0,0 km/h (0 Bft)
07.03.2011 08:06 11,1 C -1,3 C 0,0 UV-I 0,0 C 40 % 72 % 0 % 1032,7 hPa 0,0 l/m 0,0 km/h (0 Bft) 0 min 0 min 0,0 km/h (0 Bft)
07.03.2011 08:08 11,1 C -1,3 C 0,0 UV-I 0,0 C 40 % 72 % 0 % 1032,7 hPa 0,0 l/m 0,0 km/h (0 Bft) 0 min 0 min 0,0 km/h (0 Bft)
07.03.2011 08:10 11,1 C -1,2 C 0,0 UV-I 0,0 C 40 % 72 % 0 % 1032,7 hPa 0,0 l/m 0,0 km/h (0 Bft) 0 min 0 min 0,0 km/h (0 Bft)
07.03.2011 08:12 11,1 C -1,2 C 0,0 UV-I 0,0 C 40 % 72 % 0 % 1032,7 hPa 0,0 l/m 0,0 km/h (0 Bft) 0 min 0 min 0,0 km/h (0 Bft)
07.03.2011 08:14 10,9 C -1,1 C 0,0 UV-I 0,0 C 40 % 72 % 0 % 1032,7 hPa 0,0 l/m 0,4 km/h (0 Bft) 0 min 0 min 4,2 km/h (1 Bft)
07.03.2011 08:16 11,1 C -0,9 C 0,0 UV-I 0,0 C 40 % 71 % 0 % 1032,7 hPa 0,0 l/m 0,4 km/h (0 Bft) 0 min 0 min 0,0 km/h (0 Bft)
07.03.2011 08:18 11,1 C -0,9 C 0,0 UV-I 0,0 C 40 % 71 % 0 % 1032,7 hPa 0,0 l/m 0,4 km/h (0 Bft) 0 min 0 min 0,0 km/h (0 Bft)
07.03.2011 08:20 11,1 C -0,9 C 0,0 UV-I 0,0 C 40 % 71 % 0 % 1032,7 hPa 0,0 l/m 0,0 km/h (0 Bft) 0 min 0 min 0,0 km/h (0 Bft)
07.03.2011 08:22 11,1 C -0,9 C 0,0 UV-I 0,4 C 40 % 71 % 11 % 1032,7 hPa 0,0 l/m 0,0 km/h (0 Bft) 0 min 0 min 0,0 km/h (0 Bft)
07.03.2011 08:24 11,1 C -0,9 C 0,0 UV-I 1,7 C 40 % 71 % 49 % 1032,7 hPa 0,0 l/m 0,0 km/h (0 Bft) 2 min 0 min 0,0 km/h (0 Bft)
07.03.2011 08:26 11,1 C -0,7 C 0,0 UV-I 2,7 C 40 % 71 % 77 % 1032,8 hPa 0,0 l/m 0,0 km/h (0 Bft) 2 min 0 min 0,0 km/h (0 Bft)
07.03.2011 08:28 11,1 C -0,5 C 0,0 UV-I 3,1 C 40 % 71 % 89 % 1032,8 hPa 0,0 l/m 0,0 km/h (0 Bft) 2 min 0 min 0,0 km/h (0 Bft)
07.03.2011 08:30 11,1 C -0,5 C 0,0 UV-I 4,1 C 40 % 71 % 100 % 1032,8 hPa 0,0 l/m 0,0 km/h (0 Bft) 2 min 0 min 0,0 km/h (0 Bft)
07.03.2011 08:32 11,1 C -0,5 C 0,0 UV-I 4,9 C 40 % 71 % 100 % 1032,8 hPa 0,0 l/m 0,0 km/h (0 Bft) 2 min 0 min 0,0 km/h (0 Bft)
07.03.2011 08:34 11,1 C -0,5 C 0,0 UV-I 5,9 C 40 % 71 % 100 % 1032,8 hPa 0,0 l/m 0,0 km/h (0 Bft) 2 min 0 min 0,0 km/h (0 Bft)
07.03.2011 08:36 11,1 C -0,5 C 0,0 UV-I 6,3 C 40 % 71 % 100 % 1032,8 hPa 0,0 l/m 0,8 km/h (0 Bft) 2 min 0 min 0,0 km/h (0 Bft)
07.03.2011 08:38 11,1 C -0,4 C 0,0 UV-I 6,5 C 40 % 70 % 100 % 1032,8 hPa 0,0 l/m 0,8 km/h (0 Bft) 2 min 0 min 0,0 km/h (0 Bft)
07.03.2011 08:40 11,1 C -0,3 C 0,0 UV-I 6,9 C 40 % 70 % 100 % 1032,8 hPa 0,0 l/m 0,8 km/h (0 Bft) 2 min 0 min 0,0 km/h (0 Bft)
07.03.2011 08:42 11,1 C -0,1 C 0,0 UV-I 7,1 C 40 % 70 % 100 % 1032,8 hPa 0,0 l/m 0,8 km/h (0 Bft) 2 min 0 min 0,0 km/h (0 Bft)
07.03.2011 08:44 11,1 C -0,2 C 0,0 UV-I 7,6 C 40 % 70 % 100 % 1032,8 hPa 0,0 l/m 0,8 km/h (0 Bft) 2 min 0 min 13,8 km/h (3 Bft)
07.03.2011 08:46 11,1 C -0,1 C 0,0 UV-I 7,5 C 40 % 70 % 100 % 1032,8 hPa 0,0 l/m 0,8 km/h (0 Bft) 2 min 0 min 3,2 km/h (1 Bft)
07.03.2011 08:48 11,1 C 0,0 C 0,0 UV-I 7,5 C 40 % 69 % 100 % 1032,8 hPa 0,0 l/m 0,8 km/h (0 Bft) 2 min 0 min 0,0 km/h (0 Bft)
07.03.2011 08:50 11,2 C 0,3 C 0,0 UV-I 7,6 C 40 % 69 % 100 % 1032,8 hPa 0,0 l/m 1,2 km/h (1 Bft) 2 min 0 min 3,5 km/h (1 Bft)
07.03.2011 08:52 11,1 C 0,3 C 0,0 UV-I 7,9 C 40 % 69 % 100 % 1032,8 hPa 0,0 l/m 0,8 km/h (0 Bft) 2 min 0 min 0,0 km/h (0 Bft)
07.03.2011 08:54 11,2 C 0,4 C 0,0 UV-I 7,9 C 40 % 69 % 100 % 1032,8 hPa 0,0 l/m 1,2 km/h (1 Bft) 2 min 0 min 0,0 km/h (0 Bft)
07.03.2011 08:56 11,2 C 0,4 C 0,0 UV-I 8,3 C 40 % 68 % 100 % 1032,8 hPa 0,0 l/m 0,4 km/h (0 Bft) 2 min 0 min 0,0 km/h (0 Bft)
07.03.2011 08:58 11,2 C 0,7 C 0,0 UV-I 8,3 C 40 % 68 % 100 % 1032,8 hPa 0,0 l/m 0,4 km/h (0 Bft) 2 min 0 min 0,0 km/h (0 Bft)
07.03.2011 09:00 11,2 C 0,7 C 0,0 UV-I 8,5 C 40 % 68 % 100 % 1032,8 hPa 0,0 l/m 0,8 km/h (0 Bft) 2 min 0 min 6,1 km/h (2 Bft)
07.03.2011 09:02 11,2 C 0,8 C 0,0 UV-I 8,4 C 40 % 68 % 100 % 1032,8 hPa 0,0 l/m 0,8 km/h (0 Bft) 2 min 0 min 0,0 km/h (0 Bft)
07.03.2011 09:04 11,2 C 0,9 C 0,0 UV-I 8,5 C 40 % 67 % 100 % 1032,8 hPa 0,0 l/m 1,6 km/h (1 Bft) 2 min 0 min 12,6 km/h (3 Bft)
07.03.2011 09:06 11,2 C 1,1 C 0,0 UV-I 8,2 C 40 % 66 % 100 % 1032,8 hPa 0,0 l/m 2,8 km/h (1 Bft) 2 min 0 min 6,4 km/h (2 Bft)
07.03.2011 09:08 11,2 C 1,2 C 0,0 UV-I 7,8 C 40 % 65 % 100 % 1032,8 hPa 0,0 l/m 3,6 km/h (1 Bft) 2 min 0 min 0,0 km/h (0 Bft)
07.03.2011 09:10 11,2 C 1,5 C 0,0 UV-I 7,7 C 40 % 65 % 100 % 1032,8 hPa 0,0 l/m 4,0 km/h (1 Bft) 2 min 0 min 6,8 km/h (2 Bft)
07.03.2011 09:12 11,2 C 1,6 C 0,0 UV-I 7,7 C 40 % 64 % 100 % 1032,8 hPa 0,0 l/m 4,8 km/h (1 Bft) 2 min 0 min 8,4 km/h (2 Bft)
07.03.2011 09:14 11,2 C 1,7 C 0,0 UV-I 7,6 C 40 % 64 % 100 % 1032,8 hPa 0,0 l/m 5,2 km/h (1 Bft) 2 min 0 min 3,5 km/h (1 Bft)
07.03.2011 09:16 11,2 C 1,9 C 0,0 UV-I 7,6 C 40 % 62 % 100 % 1032,8 hPa 0,0 l/m 4,8 km/h (1 Bft) 2 min 0 min 6,1 km/h (2 Bft)
07.03.2011 09:18 11,1 C 2,1 C 0,0 UV-I 7,4 C 40 % 59 % 100 % 1032,8 hPa 0,0 l/m 5,6 km/h (1 Bft) 2 min 0 min 14,5 km/h (3 Bft)
07.03.2011 09:20 11,2 C 2,3 C 0,0 UV-I 7,0 C 40 % 58 % 100 % 1032,8 hPa 0,0 l/m 7,2 km/h (2 Bft) 2 min 0 min 3,9 km/h (1 Bft)
07.03.2011 09:22 11,1 C 2,4 C 0,0 UV-I 7,0 C 40 % 58 % 100 % 1032,8 hPa 0,0 l/m 6,8 km/h (2 Bft) 2 min 0 min 5,1 km/h (1 Bft)
07.03.2011 09:24 11,1 C 2,5 C 0,0 UV-I 7,2 C 40 % 58 % 100 % 1032,8 hPa 0,0 l/m 6,0 km/h (2 Bft) 2 min 0 min 19,0 km/h (3 Bft)
07.03.2011 09:26 11,1 C 2,7 C 0,0 UV-I 7,1 C 40 % 57 % 100 % 1033,0 hPa 0,0 l/m 6,8 km/h (2 Bft) 2 min 0 min 3,9 km/h (1 Bft)
07.03.2011 09:28 11,1 C 2,8 C 0,0 UV-I 7,2 C 40 % 57 % 100 % 1033,0 hPa 0,0 l/m 5,2 km/h (1 Bft) 2 min 0 min 3,9 km/h (1 Bft)
07.03.2011 09:30 11,1 C 2,9 C 0,0 UV-I 7,4 C 40 % 55 % 100 % 1033,0 hPa 0,0 l/m 4,8 km/h (1 Bft) 2 min 0 min 12,2 km/h (2 Bft)
07.03.2011 09:32 11,1 C 2,9 C 0,0 UV-I 7,3 C 40 % 53 % 100 % 1033,0 hPa 0,0 l/m 5,2 km/h (1 Bft) 2 min 0 min 11,3 km/h (2 Bft)
07.03.2011 09:34 11,2 C 3,1 C 0,0 UV-I 7,2 C 40 % 53 % 100 % 1033,0 hPa 0,0 l/m 5,6 km/h (1 Bft) 2 min 0 min 10,3 km/h (2 Bft)
07.03.2011 09:36 11,2 C 3,2 C 0,0 UV-I 7,1 C 40 % 53 % 100 % 1033,0 hPa 0,0 l/m 5,6 km/h (1 Bft) 2 min 0 min 0,0 km/h (0 Bft)
07.03.2011 09:38 11,2 C 3,3 C 0,0 UV-I 7,2 C 40 % 52 % 100 % 1033,0 hPa 0,0 l/m 6,0 km/h (2 Bft) 2 min 0 min 6,1 km/h (2 Bft)
07.03.2011 09:40 11,2 C 3,3 C 0,0 UV-I 7,1 C 40 % 50 % 100 % 1033,0 hPa 0,0 l/m 7,2 km/h (2 Bft) 2 min 0 min 10,3 km/h (2 Bft)
07.03.2011 09:42 11,2 C 3,3 C 0,0 UV-I 7,1 C 40 % 50 % 100 % 1033,0 hPa 0,0 l/m 7,2 km/h (2 Bft) 2 min 0 min 5,1 km/h (1 Bft)
07.03.2011 09:44 11,2 C 3,5 C 0,0 UV-I 6,8 C 40 % 50 % 100 % 1033,0 hPa 0,0 l/m 7,6 km/h (2 Bft) 2 min 0 min 9,3 km/h (2 Bft)
07.03.2011 09:46 11,4 C 3,5 C 0,0 UV-I 6,8 C 40 % 49 % 100 % 1033,0 hPa 0,0 l/m 7,6 km/h (2 Bft) 2 min 0 min 6,8 km/h (2 Bft)
07.03.2011 09:48 11,4 C 3,6 C 0,0 UV-I 6,8 C 39 % 49 % 100 % 1033,0 hPa 0,0 l/m 8,4 km/h (2 Bft) 2 min 0 min 13,8 km/h (3 Bft)
07.03.2011 09:50 11,4 C 3,6 C 0,0 UV-I 6,9 C 39 % 49 % 100 % 1033,0 hPa 0,0 l/m 8,4 km/h (2 Bft) 2 min 0 min 5,8 km/h (2 Bft)
07.03.2011 09:52 11,4 C 3,7 C 0,0 UV-I 6,9 C 39 % 48 % 100 % 1033,0 hPa 0,0 l/m 8,4 km/h (2 Bft) 2 min 0 min 7,7 km/h (2 Bft)
07.03.2011 09:54 11,4 C 3,9 C 0,0 UV-I 6,7 C 39 % 47 % 100 % 1033,0 hPa 0,0 l/m 8,4 km/h (2 Bft) 2 min 0 min 7,7 km/h (2 Bft)
07.03.2011 09:56 11,4 C 3,9 C 0,0 UV-I 6,8 C 39 % 47 % 100 % 1033,0 hPa 0,0 l/m 8,4 km/h (2 Bft) 2 min 0 min 8,7 km/h (2 Bft)
07.03.2011 09:58 11,4 C 3,9 C 0,0 UV-I 6,8 C 39 % 46 % 100 % 1033,0 hPa 0,0 l/m 9,2 km/h (2 Bft) 2 min 0 min 5,8 km/h (2 Bft)
07.03.2011 10:00 11,4 C 4,1 C 0,0 UV-I 6,5 C 39 % 46 % 100 % 1033,0 hPa 0,0 l/m 8,8 km/h (2 Bft) 2 min 0 min 7,7 km/h (2 Bft)
07.03.2011 10:02 11,4 C 4,1 C 0,0 UV-I 6,6 C 39 % 46 % 100 % 1033,0 hPa 0,0 l/m 8,8 km/h (2 Bft) 2 min 0 min 12,9 km/h (3 Bft)
07.03.2011 10:04 11,4 C 4,2 C 0,0 UV-I 6,7 C 39 % 46 % 100 % 1033,0 hPa 0,0 l/m 8,4 km/h (2 Bft) 2 min 0 min 10,0 km/h (2 Bft)
07.03.2011 10:06 11,3 C 4,2 C 0,0 UV-I 6,6 C 39 % 45 % 100 % 1033,3 hPa 0,0 l/m 8,8 km/h (2 Bft) 2 min 0 min 13,2 km/h (3 Bft)
07.03.2011 10:08 11,3 C 4,2 C 0,0 UV-I 6,5 C 39 % 44 % 100 % 1033,3 hPa 0,0 l/m 10,0 km/h (2 Bft) 2 min 0 min 11,6 km/h (2 Bft)
07.03.2011 10:10 11,3 C 4,3 C 0,0 UV-I 6,3 C 39 % 44 % 100 % 1033,3 hPa 0,0 l/m 9,6 km/h (2 Bft) 2 min 0 min 22,5 km/h (4 Bft)
07.03.2011 10:12 11,3 C 4,3 C 0,0 UV-I 6,4 C 39 % 44 % 100 % 1033,3 hPa 0,0 l/m 10,4 km/h (2 Bft) 2 min 0 min 8,0 km/h (2 Bft)
07.03.2011 10:14 11,5 C 4,4 C 0,0 UV-I 6,3 C 39 % 44 % 100 % 1033,3 hPa 0,0 l/m 10,8 km/h (2 Bft) 2 min 0 min 23,8 km/h (4 Bft)
07.03.2011 10:16 11,5 C 4,4 C 0,0 UV-I 6,4 C 38 % 45 % 100 % 1033,3 hPa 0,0 l/m 10,8 km/h (2 Bft) 2 min 0 min 14,2 km/h (3 Bft)
07.03.2011 10:18 11,3 C 4,5 C 0,0 UV-I 6,3 C 38 % 44 % 100 % 1033,3 hPa 0,0 l/m 10,0 km/h (2 Bft) 2 min 0 min 8,7 km/h (2 Bft)
07.03.2011 10:20 11,5 C 4,6 C 0,0 UV-I 6,3 C 38 % 43 % 100 % 1033,3 hPa 0,0 l/m 9,6 km/h (2 Bft) 2 min 0 min 14,2 km/h (3 Bft)
07.03.2011 10:22 11,5 C 4,7 C 0,0 UV-I 6,3 C 38 % 43 % 100 % 1033,3 hPa 0,0 l/m 9,6 km/h (2 Bft) 2 min 0 min 14,2 km/h (3 Bft)
07.03.2011 10:24 11,5 C 4,9 C 0,0 UV-I 6,1 C 38 % 43 % 100 % 1033,3 hPa 0,0 l/m 9,6 km/h (2 Bft) 2 min 0 min 8,7 km/h (2 Bft)
07.03.2011 10:26 11,5 C 4,8 C 0,0 UV-I 6,2 C 38 % 42 % 100 % 1033,3 hPa 0,0 l/m 10,0 km/h (2 Bft) 2 min 0 min 9,7 km/h (2 Bft)
07.03.2011 10:28 11,5 C 4,8 C 0,0 UV-I 6,2 C 38 % 43 % 100 % 1033,3 hPa 0,0 l/m 9,2 km/h (2 Bft) 2 min 0 min 6,4 km/h (2 Bft)
07.03.2011 10:30 11,5 C 4,9 C 0,0 UV-I 6,3 C 38 % 43 % 100 % 1033,3 hPa 0,0 l/m 9,6 km/h (2 Bft) 2 min 0 min 5,8 km/h (2 Bft)
07.03.2011 10:32 11,5 C 5,1 C 0,0 UV-I 6,4 C 38 % 43 % 100 % 1033,3 hPa 0,0 l/m 9,2 km/h (2 Bft) 2 min 0 min 8,0 km/h (2 Bft)
07.03.2011 10:34 11,4 C 5,1 C 0,0 UV-I 6,7 C 38 % 42 % 100 % 1033,3 hPa 0,0 l/m 8,8 km/h (2 Bft) 2 min 0 min 21,6 km/h (4 Bft)
07.03.2011 10:36 11,4 C 5,1 C 0,0 UV-I 6,6 C 38 % 41 % 100 % 1033,3 hPa 0,0 l/m 8,0 km/h (2 Bft) 2 min 0 min 5,5 km/h (1 Bft)
07.03.2011 10:38 11,6 C 5,2 C 0,0 UV-I 6,6 C 38 % 42 % 100 % 1033,3 hPa 0,0 l/m 8,0 km/h (2 Bft) 2 min 0 min 5,5 km/h (1 Bft)
07.03.2011 10:40 11,6 C 5,3 C 0,0 UV-I 6,6 C 38 % 42 % 100 % 1033,3 hPa 0,0 l/m 8,0 km/h (2 Bft) 2 min 0 min 13,2 km/h (3 Bft)
07.03.2011 10:42 11,6 C 5,5 C 0,0 UV-I 6,4 C 38 % 41 % 100 % 1033,3 hPa 0,0 l/m 8,4 km/h (2 Bft) 2 min 0 min 6,1 km/h (2 Bft)
07.03.2011 10:44 11,4 C 5,5 C 0,0 UV-I 6,3 C 38 % 41 % 100 % 1033,3 hPa 0,0 l/m 10,0 km/h (2 Bft) 2 min 0 min 19,6 km/h (3 Bft)
07.03.2011 10:46 11,6 C 5,5 C 0,0 UV-I 6,3 C 38 % 40 % 100 % 1033,2 hPa 0,0 l/m 9,6 km/h (2 Bft) 2 min 0 min 9,3 km/h (2 Bft)
07.03.2011 10:48 11,6 C 5,4 C 0,0 UV-I 6,2 C 38 % 40 % 100 % 1033,2 hPa 0,0 l/m 11,2 km/h (2 Bft) 2 min 0 min 18,0 km/h (3 Bft)
07.03.2011 10:50 11,6 C 5,5 C 0,0 UV-I 6,0 C 38 % 40 % 100 % 1033,2 hPa 0,0 l/m 12,0 km/h (2 Bft) 2 min 0 min 11,9 km/h (2 Bft)
07.03.2011 10:52 11,6 C 5,5 C 0,0 UV-I 6,0 C 38 % 40 % 100 % 1033,2 hPa 0,0 l/m 11,6 km/h (2 Bft) 2 min 0 min 12,6 km/h (3 Bft)
07.03.2011 10:54 11,6 C 5,7 C 0,0 UV-I 5,8 C 38 % 40 % 100 % 1033,2 hPa 0,0 l/m 11,6 km/h (2 Bft) 2 min 0 min 11,3 km/h (2 Bft)
07.03.2011 10:56 11,6 C 5,6 C 0,0 UV-I 6,0 C 38 % 40 % 100 % 1033,2 hPa 0,0 l/m 11,6 km/h (2 Bft) 2 min 0 min 12,2 km/h (2 Bft)
07.03.2011 10:58 11,6 C 5,6 C 0,0 UV-I 5,9 C 38 % 39 % 100 % 1033,2 hPa 0,0 l/m 11,2 km/h (2 Bft) 2 min 0 min 10,3 km/h (2 Bft)
07.03.2011 11:00 11,6 C 5,6 C 0,0 UV-I 6,0 C 38 % 39 % 100 % 1033,2 hPa 0,0 l/m 10,8 km/h (2 Bft) 2 min 0 min 12,6 km/h (3 Bft)
07.03.2011 11:02 11,6 C 5,7 C 0,0 UV-I 5,8 C 38 % 39 % 100 % 1033,2 hPa 0,0 l/m 10,4 km/h (2 Bft) 2 min 0 min 5,8 km/h (2 Bft)
07.03.2011 11:04 11,6 C 5,7 C 0,0 UV-I 6,0 C 38 % 39 % 100 % 1033,2 hPa 0,0 l/m 11,2 km/h (2 Bft) 2 min 0 min 21,9 km/h (4 Bft)
07.03.2011 11:06 11,6 C 5,8 C 0,0 UV-I 5,8 C 38 % 39 % 100 % 1033,2 hPa 0,0 l/m 11,6 km/h (2 Bft) 2 min 0 min 10,6 km/h (2 Bft)
07.03.2011 11:08 11,6 C 5,9 C 0,0 UV-I 5,8 C 38 % 39 % 100 % 1033,2 hPa 0,0 l/m 11,6 km/h (2 Bft) 2 min 0 min 16,7 km/h (3 Bft)
07.03.2011 11:10 11,6 C 5,9 C 0,0 UV-I 5,9 C 38 % 39 % 100 % 1033,2 hPa 0,0 l/m 11,2 km/h (2 Bft) 2 min 0 min 6,8 km/h (2 Bft)
07.03.2011 11:12 11,6 C 5,9 C 0,0 UV-I 6,0 C 38 % 39 % 100 % 1033,2 hPa 0,0 l/m 10,4 km/h (2 Bft) 2 min 0 min 9,7 km/h (2 Bft)
07.03.2011 11:14 11,6 C 5,9 C 0,0 UV-I 6,3 C 38 % 39 % 100 % 1033,2 hPa 0,0 l/m 10,4 km/h (2 Bft) 2 min 0 min 15,4 km/h (3 Bft)
07.03.2011 11:16 11,6 C 6,0 C 0,0 UV-I 6,2 C 38 % 38 % 100 % 1033,2 hPa 0,0 l/m 10,0 km/h (2 Bft) 2 min 0 min 6,1 km/h (2 Bft)
07.03.2011 11:18 11,6 C 6,0 C 0,0 UV-I 6,2 C 38 % 39 % 100 % 1033,2 hPa 0,0 l/m 10,0 km/h (2 Bft) 2 min 0 min 19,6 km/h (3 Bft)
07.03.2011 11:20 11,6 C 6,1 C 0,0 UV-I 6,1 C 38 % 38 % 100 % 1033,2 hPa 0,0 l/m 10,4 km/h (2 Bft) 2 min 0 min 9,7 km/h (2 Bft)
07.03.2011 11:22 11,8 C 6,3 C 0,0 UV-I 5,9 C 38 % 39 % 100 % 1033,2 hPa 0,0 l/m 10,8 km/h (2 Bft) 2 min 0 min 15,8 km/h (3 Bft)
07.03.2011 11:24 11,8 C 6,3 C 0,0 UV-I 6,0 C 38 % 38 % 100 % 1033,2 hPa 0,0 l/m 11,2 km/h (2 Bft) 2 min 0 min 25,1 km/h (4 Bft)
07.03.2011 11:26 11,8 C 6,3 C 0,0 UV-I 6,0 C 38 % 37 % 100 % 1033,2 hPa 0,0 l/m 12,0 km/h (2 Bft) 2 min 0 min 11,6 km/h (2 Bft)
07.03.2011 11:28 11,8 C 6,2 C 0,0 UV-I 6,0 C 38 % 37 % 100 % 1033,2 hPa 0,0 l/m 12,0 km/h (2 Bft) 2 min 0 min 9,7 km/h (2 Bft)
07.03.2011 11:30 11,8 C 6,3 C 0,0 UV-I 6,1 C 38 % 37 % 100 % 1033,2 hPa 0,0 l/m 10,8 km/h (2 Bft) 2 min 0 min 9,0 km/h (2 Bft)
07.03.2011 11:32 11,8 C 6,4 C 0,0 UV-I 6,2 C 38 % 37 % 100 % 1033,2 hPa 0,0 l/m 10,8 km/h (2 Bft) 2 min 0 min 5,1 km/h (1 Bft)
07.03.2011 11:34 11,8 C 6,4 C 0,0 UV-I 6,2 C 38 % 37 % 100 % 1033,2 hPa 0,0 l/m 10,8 km/h (2 Bft) 2 min 0 min 9,7 km/h (2 Bft)
07.03.2011 11:36 11,9 C 6,4 C 0,0 UV-I 6,2 C 38 % 37 % 100 % 1033,2 hPa 0,0 l/m 10,0 km/h (2 Bft) 2 min 0 min 13,8 km/h (3 Bft)
07.03.2011 11:38 11,9 C 6,5 C 0,0 UV-I 5,8 C 37 % 37 % 100 % 1033,2 hPa 0,0 l/m 10,8 km/h (2 Bft) 2 min 0 min 13,8 km/h (3 Bft)
07.03.2011 11:40 11,9 C 6,7 C 0,0 UV-I 5,6 C 37 % 36 % 100 % 1033,2 hPa 0,0 l/m 11,6 km/h (2 Bft) 2 min 0 min 20,0 km/h (4 Bft)
07.03.2011 11:42 11,9 C 6,7 C 0,0 UV-I 5,6 C 37 % 36 % 100 % 1033,2 hPa 0,0 l/m 11,2 km/h (2 Bft) 2 min 0 min 7,7 km/h (2 Bft)
07.03.2011 11:44 11,8 C 6,7 C 0,0 UV-I 5,8 C 37 % 36 % 100 % 1033,2 hPa 0,0 l/m 10,8 km/h (2 Bft) 2 min 0 min 14,2 km/h (3 Bft)
07.03.2011 11:46 11,8 C 6,7 C 0,0 UV-I 5,8 C 37 % 35 % 100 % 1033,6 hPa 0,0 l/m 10,4 km/h (2 Bft) 2 min 0 min 12,6 km/h (3 Bft)
07.03.2011 11:48 11,8 C 6,7 C 0,0 UV-I 5,9 C 37 % 35 % 100 % 1033,6 hPa 0,0 l/m 10,8 km/h (2 Bft) 2 min 0 min 20,9 km/h (4 Bft)
07.03.2011 11:50 12,0 C 6,7 C 0,0 UV-I 5,8 C 37 % 35 % 100 % 1033,6 hPa 0,0 l/m 11,2 km/h (2 Bft) 2 min 0 min 6,8 km/h (2 Bft)
07.03.2011 11:52 12,0 C 6,7 C 0,0 UV-I 5,7 C 37 % 35 % 100 % 1033,6 hPa 0,0 l/m 11,2 km/h (2 Bft) 2 min 0 min 16,7 km/h (3 Bft)
07.03.2011 11:54 12,0 C 6,8 C 0,0 UV-I 5,6 C 37 % 35 % 100 % 1033,6 hPa 0,0 l/m 11,6 km/h (2 Bft) 2 min 0 min 3,2 km/h (1 Bft)
07.03.2011 11:56 11,9 C 6,8 C 0,0 UV-I 5,8 C 37 % 35 % 100 % 1033,6 hPa 0,0 l/m 12,8 km/h (3 Bft) 2 min 0 min 23,2 km/h (4 Bft)
07.03.2011 11:58 12,1 C 6,8 C 0,0 UV-I 5,8 C 37 % 35 % 100 % 1033,6 hPa 0,0 l/m 13,3 km/h (3 Bft) 2 min 0 min 25,4 km/h (4 Bft)
07.03.2011 12:00 11,9 C 6,9 C 0,0 UV-I 5,5 C 37 % 35 % 100 % 1033,6 hPa 0,0 l/m 12,0 km/h (2 Bft) 2 min 0 min 7,1 km/h (2 Bft)
07.03.2011 12:02 12,1 C 6,9 C 0,0 UV-I 5,7 C 37 % 36 % 100 % 1033,6 hPa 0,0 l/m 11,6 km/h (2 Bft) 2 min 0 min 12,6 km/h (3 Bft)
07.03.2011 12:04 12,1 C 6,9 C 0,0 UV-I 5,7 C 37 % 36 % 100 % 1033,6 hPa 0,0 l/m 11,2 km/h (2 Bft) 2 min 0 min 25,4 km/h (4 Bft)
07.03.2011 12:06 12,2 C 7,1 C 0,0 UV-I 5,7 C 37 % 34 % 100 % 1032,9 hPa 0,0 l/m 11,2 km/h (2 Bft) 2 min 0 min 10,6 km/h (2 Bft)
07.03.2011 12:08 12,2 C 7,1 C 0,0 UV-I 5,7 C 37 % 34 % 100 % 1032,9 hPa 0,0 l/m 10,8 km/h (2 Bft) 2 min 0 min 9,0 km/h (2 Bft)
07.03.2011 12:10 12,2 C 7,2 C 0,0 UV-I 5,8 C 37 % 35 % 100 % 1032,9 hPa 0,0 l/m 9,6 km/h (2 Bft) 2 min 0 min 12,2 km/h (2 Bft)
07.03.2011 12:12 12,2 C 7,3 C 0,0 UV-I 5,9 C 38 % 34 % 100 % 1032,9 hPa 0,0 l/m 10,0 km/h (2 Bft) 2 min 0 min 8,4 km/h (2 Bft)
07.03.2011 12:14 12,3 C 7,3 C 0,0 UV-I 5,9 C 38 % 35 % 100 % 1032,9 hPa 0,0 l/m 9,2 km/h (2 Bft) 2 min 0 min 6,1 km/h (2 Bft)
07.03.2011 12:16 12,3 C 7,4 C 0,0 UV-I 6,1 C 38 % 34 % 100 % 1032,9 hPa 0,0 l/m 9,2 km/h (2 Bft) 2 min 0 min 10,0 km/h (2 Bft)
07.03.2011 12:18 12,2 C 7,5 C 0,0 UV-I 6,0 C 38 % 34 % 100 % 1032,9 hPa 0,0 l/m 9,2 km/h (2 Bft) 2 min 0 min 6,4 km/h (2 Bft)
07.03.2011 12:20 12,4 C 7,5 C 0,0 UV-I 5,9 C 38 % 34 % 100 % 1032,9 hPa 0,0 l/m 10,4 km/h (2 Bft) 2 min 0 min 15,8 km/h (3 Bft)
07.03.2011 12:22 12,3 C 7,5 C 0,0 UV-I 5,7 C 38 % 33 % 100 % 1032,9 hPa 0,0 l/m 12,4 km/h (3 Bft) 2 min 0 min 26,1 km/h (4 Bft)
07.03.2011 12:24 12,3 C 7,4 C 0,0 UV-I 5,6 C 37 % 33 % 100 % 1032,9 hPa 0,0 l/m 12,8 km/h (3 Bft) 2 min 0 min 26,1 km/h (4 Bft)
07.03.2011 12:26 12,4 C 7,5 C 0,0 UV-I 5,5 C 37 % 33 % 100 % 1032,9 hPa 0,0 l/m 13,7 km/h (3 Bft) 2 min 0 min 8,4 km/h (2 Bft)
07.03.2011 12:28 12,6 C 7,6 C 0,0 UV-I 5,4 C 37 % 33 % 100 % 1032,9 hPa 0,0 l/m 13,7 km/h (3 Bft) 2 min 0 min 14,5 km/h (3 Bft)
07.03.2011 12:30 12,6 C 7,6 C 0,0 UV-I 5,6 C 37 % 33 % 100 % 1032,9 hPa 0,0 l/m 12,8 km/h (3 Bft) 2 min 0 min 9,7 km/h (2 Bft)
07.03.2011 12:32 12,6 C 7,7 C 0,0 UV-I 5,6 C 37 % 33 % 100 % 1032,9 hPa 0,0 l/m 10,8 km/h (2 Bft) 2 min 0 min 7,7 km/h (2 Bft)
07.03.2011 12:34 12,7 C 7,7 C 0,0 UV-I 5,7 C 37 % 32 % 100 % 1032,9 hPa 0,0 l/m 10,8 km/h (2 Bft) 2 min 0 min 13,8 km/h (3 Bft)
07.03.2011 12:36 12,7 C 7,7 C 0,0 UV-I 5,6 C 37 % 32 % 100 % 1032,9 hPa 0,0 l/m 11,6 km/h (2 Bft) 2 min 0 min 20,9 km/h (4 Bft)
07.03.2011 12:38 12,8 C 7,7 C 0,3 UV-I 5,7 C 37 % 32 % 100 % 1032,9 hPa 0,0 l/m 11,6 km/h (2 Bft) 2 min 0 min 13,8 km/h (3 Bft)
07.03.2011 12:40 12,8 C 7,8 C 0,3 UV-I 5,6 C 37 % 33 % 100 % 1032,9 hPa 0,0 l/m 11,2 km/h (2 Bft) 2 min 0 min 7,4 km/h (2 Bft)
07.03.2011 12:42 12,8 C 7,9 C 0,4 UV-I 5,8 C 37 % 33 % 100 % 1032,9 hPa 0,0 l/m 11,2 km/h (2 Bft) 2 min 0 min 6,1 km/h (2 Bft)
07.03.2011 12:44 12,8 C 8,0 C 0,4 UV-I 5,9 C 37 % 32 % 100 % 1032,9 hPa 0,0 l/m 10,8 km/h (2 Bft) 2 min 0 min 10,0 km/h (2 Bft)
07.03.2011 12:46 13,0 C 8,0 C 0,4 UV-I 6,0 C 37 % 33 % 100 % 1032,9 hPa 0,0 l/m 9,6 km/h (2 Bft) 2 min 0 min 5,8 km/h (2 Bft)
07.03.2011 12:48 12,9 C 8,0 C 0,4 UV-I 6,0 C 37 % 33 % 100 % 1032,9 hPa 0,0 l/m 9,6 km/h (2 Bft) 2 min 0 min 10,3 km/h (2 Bft)
07.03.2011 12:50 13,1 C 8,2 C 0,4 UV-I 5,7 C 37 % 33 % 100 % 1032,9 hPa 0,0 l/m 9,6 km/h (2 Bft) 2 min 0 min 10,9 km/h (2 Bft)
07.03.2011 12:52 13,2 C 8,2 C 0,4 UV-I 5,8 C 37 % 32 % 100 % 1032,9 hPa 0,0 l/m 10,0 km/h (2 Bft) 2 min 0 min 10,3 km/h (2 Bft)
07.03.2011 12:54 13,1 C 8,2 C 0,4 UV-I 5,8 C 37 % 32 % 100 % 1032,9 hPa 0,0 l/m 10,4 km/h (2 Bft) 2 min 0 min 7,7 km/h (2 Bft)
07.03.2011 12:56 13,3 C 8,3 C 0,4 UV-I 5,8 C 37 % 32 % 100 % 1032,9 hPa 0,0 l/m 10,8 km/h (2 Bft) 2 min 0 min 16,1 km/h (3 Bft)
07.03.2011 12:58 13,2 C 8,4 C 0,5 UV-I 5,7 C 37 % 32 % 100 % 1032,9 hPa 0,0 l/m 10,4 km/h (2 Bft) 2 min 0 min 11,9 km/h (2 Bft)
07.03.2011 13:00 13,4 C 8,4 C 0,5 UV-I 5,7 C 37 % 32 % 100 % 1032,9 hPa 0,0 l/m 11,2 km/h (2 Bft) 2 min 0 min 10,9 km/h (2 Bft)
07.03.2011 13:02 13,3 C 8,4 C 0,7 UV-I 5,6 C 37 % 32 % 100 % 1032,9 hPa 0,0 l/m 11,2 km/h (2 Bft) 2 min 0 min 12,6 km/h (3 Bft)
07.03.2011 13:04 13,5 C 8,5 C 0,7 UV-I 5,5 C 37 % 31 % 100 % 1032,9 hPa 0,0 l/m 11,6 km/h (2 Bft) 2 min 0 min 10,6 km/h (2 Bft)
07.03.2011 13:06 13,6 C 8,5 C 0,7 UV-I 5,6 C 36 % 32 % 100 % 1035,6 hPa 0,0 l/m 11,2 km/h (2 Bft) 2 min 0 min 9,7 km/h (2 Bft)
07.03.2011 13:08 13,6 C 8,5 C 0,8 UV-I 5,7 C 36 % 32 % 100 % 1035,6 hPa 0,0 l/m 11,2 km/h (2 Bft) 2 min 0 min 16,7 km/h (3 Bft)
07.03.2011 13:10 13,7 C 8,5 C 0,8 UV-I 5,6 C 36 % 31 % 100 % 1035,6 hPa 0,0 l/m 10,4 km/h (2 Bft) 2 min 0 min 0,0 km/h (0 Bft)
07.03.2011 13:12 13,8 C 8,5 C 0,8 UV-I 5,8 C 36 % 32 % 100 % 1035,6 hPa 0,0 l/m 9,2 km/h (2 Bft) 2 min 0 min 6,8 km/h (2 Bft)
07.03.2011 13:14 13,8 C 8,6 C 0,8 UV-I 5,8 C 36 % 30 % 100 % 1035,6 hPa 0,0 l/m 9,6 km/h (2 Bft) 2 min 0 min 20,9 km/h (4 Bft)
07.03.2011 13:16 13,9 C 8,6 C 0,8 UV-I 6,0 C 36 % 31 % 100 % 1035,6 hPa 0,0 l/m 8,4 km/h (2 Bft) 2 min 0 min 6,1 km/h (2 Bft)
07.03.2011 13:18 13,8 C 8,6 C 0,7 UV-I 6,3 C 35 % 31 % 100 % 1035,6 hPa 0,0 l/m 8,4 km/h (2 Bft) 2 min 0 min 10,3 km/h (2 Bft)
07.03.2011 13:20 14,0 C 8,8 C 0,7 UV-I 6,1 C 35 % 31 % 100 % 1035,6 hPa 0,0 l/m 7,6 km/h (2 Bft) 2 min 0 min 8,4 km/h (2 Bft)
07.03.2011 13:22 13,9 C 8,8 C 0,8 UV-I 6,1 C 35 % 31 % 100 % 1035,6 hPa 0,0 l/m 8,4 km/h (2 Bft) 2 min 0 min 11,3 km/h (2 Bft)
07.03.2011 13:24 14,1 C 8,8 C 0,8 UV-I 6,1 C 35 % 30 % 100 % 1035,6 hPa 0,0 l/m 8,8 km/h (2 Bft) 2 min 0 min 15,8 km/h (3 Bft)
07.03.2011 13:26 14,2 C 9,0 C 0,8 UV-I 5,9 C 35 % 31 % 100 % 1036,3 hPa 0,0 l/m 8,4 km/h (2 Bft) 2 min 0 min 8,7 km/h (2 Bft)
07.03.2011 13:28 14,1 C 9,0 C 0,8 UV-I 6,0 C 35 % 31 % 100 % 1036,3 hPa 0,0 l/m 8,4 km/h (2 Bft) 2 min 0 min 4,5 km/h (1 Bft)
07.03.2011 13:30 14,2 C 9,2 C 0,8 UV-I 6,1 C 35 % 31 % 100 % 1036,3 hPa 0,0 l/m 8,0 km/h (2 Bft) 2 min 0 min 8,7 km/h (2 Bft)
07.03.2011 13:32 14,4 C 9,2 C 0,7 UV-I 6,1 C 34 % 30 % 100 % 1036,3 hPa 0,0 l/m 9,2 km/h (2 Bft) 2 min 0 min 11,9 km/h (2 Bft)
07.03.2011 13:34 14,3 C 9,2 C 0,7 UV-I 6,0 C 34 % 30 % 100 % 1036,3 hPa 0,0 l/m 9,6 km/h (2 Bft) 2 min 0 min 13,8 km/h (3 Bft)
07.03.2011 13:36 14,4 C 9,2 C 0,7 UV-I 6,0 C 34 % 29 % 100 % 1036,3 hPa 0,0 l/m 8,8 km/h (2 Bft) 2 min 0 min 5,1 km/h (1 Bft)
07.03.2011 13:38 14,6 C 9,3 C 0,6 UV-I 5,8 C 34 % 29 % 100 % 1036,3 hPa 0,0 l/m 10,0 km/h (2 Bft) 2 min 0 min 10,0 km/h (2 Bft)
07.03.2011 13:40 14,6 C 9,3 C 0,6 UV-I 5,7 C 34 % 29 % 100 % 1036,3 hPa 0,0 l/m 10,8 km/h (2 Bft) 2 min 0 min 11,6 km/h (2 Bft)
07.03.2011 13:42 14,7 C 9,3 C 0,5 UV-I 5,7 C 34 % 29 % 100 % 1036,3 hPa 0,0 l/m 10,0 km/h (2 Bft) 2 min 0 min 6,8 km/h (2 Bft)
07.03.2011 13:44 14,8 C 9,3 C 0,5 UV-I 5,7 C 33 % 30 % 100 % 1036,3 hPa 0,0 l/m 10,0 km/h (2 Bft) 2 min 0 min 14,8 km/h (3 Bft)
07.03.2011 13:46 14,8 C 9,2 C 0,5 UV-I 5,8 C 33 % 29 % 100 % 1036,1 hPa 0,0 l/m 10,0 km/h (2 Bft) 2 min 0 min 13,2 km/h (3 Bft)
07.03.2011 13:48 14,8 C 9,3 C 0,5 UV-I 5,4 C 33 % 29 % 100 % 1036,1 hPa 0,0 l/m 10,8 km/h (2 Bft) 2 min 0 min 7,4 km/h (2 Bft)
07.03.2011 13:50 15,0 C 9,2 C 0,5 UV-I 5,5 C 33 % 29 % 100 % 1036,1 hPa 0,0 l/m 10,4 km/h (2 Bft) 2 min 0 min 9,0 km/h (2 Bft)
07.03.2011 13:52 15,1 C 9,3 C 0,4 UV-I 5,5 C 33 % 29 % 100 % 1036,1 hPa 0,0 l/m 10,0 km/h (2 Bft) 2 min 0 min 7,4 km/h (2 Bft)
07.03.2011 13:54 15,1 C 9,4 C 0,4 UV-I 5,5 C 33 % 28 % 100 % 1036,1 hPa 0,0 l/m 10,8 km/h (2 Bft) 2 min 0 min 22,5 km/h (4 Bft)
07.03.2011 13:56 15,2 C 9,5 C 0,4 UV-I 5,2 C 33 % 27 % 100 % 1036,1 hPa 0,0 l/m 11,6 km/h (2 Bft) 2 min 0 min 15,1 km/h (3 Bft)
07.03.2011 13:58 15,3 C 9,4 C 0,2 UV-I 5,2 C 32 % 27 % 100 % 1036,1 hPa 0,0 l/m 11,6 km/h (2 Bft) 2 min 0 min 16,1 km/h (3 Bft)
07.03.2011 14:00 15,2 C 9,4 C 0,2 UV-I 5,0 C 32 % 27 % 100 % 1036,1 hPa 0,0 l/m 12,4 km/h (3 Bft) 2 min 0 min 12,9 km/h (3 Bft)
07.03.2011 14:02 15,4 C 9,4 C 0,2 UV-I 5,1 C 32 % 27 % 100 % 1036,1 hPa 0,0 l/m 11,2 km/h (2 Bft) 2 min 0 min 7,1 km/h (2 Bft)
07.03.2011 14:04 15,5 C 9,5 C 0,2 UV-I 5,2 C 32 % 27 % 100 % 1036,1 hPa 0,0 l/m 11,6 km/h (2 Bft) 2 min 0 min 9,7 km/h (2 Bft)
07.03.2011 14:06 15,4 C 9,6 C 0,2 UV-I 5,2 C 32 % 27 % 100 % 1035,1 hPa 0,0 l/m 11,2 km/h (2 Bft) 2 min 0 min 9,7 km/h (2 Bft)
07.03.2011 14:08 15,6 C 9,7 C 0,1 UV-I 5,0 C 32 % 28 % 100 % 1035,1 hPa 0,0 l/m 10,8 km/h (2 Bft) 2 min 0 min 8,4 km/h (2 Bft)
07.03.2011 14:10 15,6 C 9,6 C 0,1 UV-I 5,3 C 32 % 28 % 100 % 1035,1 hPa 0,0 l/m 10,4 km/h (2 Bft) 2 min 0 min 16,1 km/h (3 Bft)
07.03.2011 14:12 15,6 C 9,7 C 0,0 UV-I 5,2 C 31 % 28 % 100 % 1035,1 hPa 0,0 l/m 10,0 km/h (2 Bft) 2 min 0 min 10,0 km/h (2 Bft)
07.03.2011 14:14 15,8 C 9,9 C 0,0 UV-I 5,1 C 31 % 28 % 100 % 1035,1 hPa 0,0 l/m 9,6 km/h (2 Bft) 2 min 0 min 0,0 km/h (0 Bft)
07.03.2011 14:16 15,8 C 9,9 C 0,0 UV-I 5,4 C 31 % 28 % 100 % 1035,1 hPa 0,0 l/m 9,2 km/h (2 Bft) 2 min 0 min 9,0 km/h (2 Bft)
07.03.2011 14:18 15,8 C 10,1 C 0,0 UV-I 5,3 C 31 % 27 % 100 % 1035,1 hPa 0,0 l/m 8,8 km/h (2 Bft) 2 min 0 min 7,4 km/h (2 Bft)
07.03.2011 14:20 15,8 C 10,0 C 0,0 UV-I 5,4 C 31 % 27 % 100 % 1035,1 hPa 0,0 l/m 8,8 km/h (2 Bft) 2 min 0 min 7,7 km/h (2 Bft)
07.03.2011 14:22 16,0 C 10,0 C 0,0 UV-I 5,4 C 31 % 27 % 100 % 1035,1 hPa 0,0 l/m 8,4 km/h (2 Bft) 2 min 0 min 10,6 km/h (2 Bft)
07.03.2011 14:24 15,9 C 10,1 C 0,0 UV-I 5,3 C 31 % 27 % 100 % 1035,1 hPa 0,0 l/m 8,4 km/h (2 Bft) 2 min 0 min 4,5 km/h (1 Bft)
07.03.2011 14:26 16,1 C 10,0 C 0,0 UV-I 5,4 C 30 % 27 % 100 % 1034,7 hPa 0,0 l/m 9,2 km/h (2 Bft) 2 min 0 min 10,3 km/h (2 Bft)
07.03.2011 14:28 16,2 C 10,0 C 0,0 UV-I 5,4 C 30 % 28 % 100 % 1034,7 hPa 0,0 l/m 9,6 km/h (2 Bft) 2 min 0 min 8,7 km/h (2 Bft)
07.03.2011 14:30 16,2 C 10,1 C 0,0 UV-I 5,3 C 30 % 27 % 100 % 1034,7 hPa 0,0 l/m 9,2 km/h (2 Bft) 2 min 0 min 9,3 km/h (2 Bft)
07.03.2011 14:32 16,3 C 10,1 C 0,0 UV-I 5,3 C 30 % 28 % 100 % 1034,7 hPa 0,0 l/m 10,0 km/h (2 Bft) 2 min 0 min 5,1 km/h (1 Bft)
07.03.2011 14:34 16,2 C 10,1 C 0,0 UV-I 5,3 C 30 % 28 % 100 % 1034,7 hPa 0,0 l/m 10,0 km/h (2 Bft) 2 min 0 min 14,8 km/h (3 Bft)
07.03.2011 14:36 16,4 C 10,2 C 0,0 UV-I 5,2 C 30 % 28 % 100 % 1034,7 hPa 0,0 l/m 10,0 km/h (2 Bft) 2 min 0 min 9,7 km/h (2 Bft)
07.03.2011 14:38 16,4 C 10,2 C 0,0 UV-I 5,2 C 30 % 27 % 100 % 1034,7 hPa 0,0 l/m 9,2 km/h (2 Bft) 2 min 0 min 10,3 km/h (2 Bft)
07.03.2011 14:40 16,5 C 10,3 C 0,0 UV-I 5,1 C 30 % 27 % 100 % 1034,7 hPa 0,0 l/m 9,6 km/h (2 Bft) 2 min 0 min 10,0 km/h (2 Bft)
07.03.2011 14:42 16,6 C 10,1 C 0,0 UV-I 5,1 C 30 % 27 % 100 % 1034,7 hPa 0,0 l/m 10,4 km/h (2 Bft) 2 min 0 min 10,6 km/h (2 Bft)
07.03.2011 14:44 16,6 C 10,1 C 0,0 UV-I 4,9 C 30 % 26 % 100 % 1034,7 hPa 0,0 l/m 12,0 km/h (2 Bft) 2 min 0 min 30,3 km/h (5 Bft)
07.03.2011 14:46 16,7 C 10,1 C 0,0 UV-I 4,8 C 30 % 27 % 100 % 1035,1 hPa 0,0 l/m 12,0 km/h (2 Bft) 2 min 0 min 13,5 km/h (3 Bft)
07.03.2011 14:48 16,8 C 10,1 C 0,0 UV-I 4,7 C 29 % 26 % 100 % 1035,1 hPa 0,0 l/m 12,4 km/h (3 Bft) 2 min 0 min 9,0 km/h (2 Bft)
07.03.2011 14:50 16,8 C 10,1 C 0,0 UV-I 4,7 C 30 % 26 % 100 % 1035,1 hPa 0,0 l/m 12,4 km/h (3 Bft) 2 min 0 min 5,8 km/h (2 Bft)
07.03.2011 14:52 16,8 C 10,1 C 0,0 UV-I 4,7 C 30 % 27 % 100 % 1035,1 hPa 0,0 l/m 12,0 km/h (2 Bft) 2 min 0 min 15,4 km/h (3 Bft)
07.03.2011 14:54 16,9 C 10,1 C 0,0 UV-I 4,9 C 29 % 27 % 100 % 1035,1 hPa 0,0 l/m 10,8 km/h (2 Bft) 2 min 0 min 18,7 km/h (3 Bft)
07.03.2011 14:56 16,9 C 10,3 C 0,0 UV-I 4,6 C 29 % 27 % 100 % 1035,1 hPa 0,0 l/m 10,8 km/h (2 Bft) 2 min 0 min 8,4 km/h (2 Bft)
07.03.2011 14:58 17,0 C 10,2 C 0,0 UV-I 4,7 C 29 % 27 % 100 % 1035,1 hPa 0,0 l/m 10,8 km/h (2 Bft) 2 min 0 min 11,3 km/h (2 Bft)
07.03.2011 15:00 17,0 C 10,3 C 0,0 UV-I 4,6 C 29 % 26 % 100 % 1035,1 hPa 0,0 l/m 10,8 km/h (2 Bft) 2 min 0 min 9,7 km/h (2 Bft)
07.03.2011 15:02 17,1 C 10,3 C 0,0 UV-I 4,7 C 29 % 27 % 100 % 1035,1 hPa 0,0 l/m 10,0 km/h (2 Bft) 2 min 0 min 6,1 km/h (2 Bft)
07.03.2011 15:04 17,1 C 10,4 C 0,0 UV-I 4,8 C 29 % 27 % 100 % 1035,1 hPa 0,0 l/m 10,0 km/h (2 Bft) 2 min 0 min 7,4 km/h (2 Bft)
07.03.2011 15:06 17,2 C 10,5 C 0,0 UV-I 4,7 C 29 % 27 % 100 % 1035,7 hPa 0,0 l/m 9,2 km/h (2 Bft) 2 min 0 min 15,4 km/h (3 Bft)
07.03.2011 15:08 17,2 C 10,5 C 0,0 UV-I 4,7 C 29 % 27 % 100 % 1035,7 hPa 0,0 l/m 8,8 km/h (2 Bft) 2 min 0 min 7,4 km/h (2 Bft)
07.03.2011 15:10 17,2 C 10,6 C 0,0 UV-I 4,8 C 29 % 26 % 100 % 1035,7 hPa 0,0 l/m 8,4 km/h (2 Bft) 2 min 0 min 9,0 km/h (2 Bft)
07.03.2011 15:12 17,2 C 10,7 C 0,0 UV-I 4,8 C 29 % 26 % 100 % 1035,7 hPa 0,0 l/m 7,6 km/h (2 Bft) 2 min 0 min 0,0 km/h (0 Bft)
07.03.2011 15:14 17,2 C 10,6 C 0,0 UV-I 4,9 C 29 % 26 % 100 % 1035,7 hPa 0,0 l/m 7,6 km/h (2 Bft) 2 min 0 min 5,8 km/h (2 Bft)
07.03.2011 15:16 17,4 C 10,7 C 0,0 UV-I 5,0 C 29 % 26 % 100 % 1035,7 hPa 0,0 l/m 7,2 km/h (2 Bft) 2 min 0 min 5,5 km/h (1 Bft)
07.03.2011 15:18 17,4 C 10,7 C 0,0 UV-I 4,9 C 29 % 26 % 100 % 1035,7 hPa 0,0 l/m 7,6 km/h (2 Bft) 2 min 0 min 18,0 km/h (3 Bft)
07.03.2011 15:20 17,5 C 10,6 C 0,0 UV-I 5,0 C 29 % 26 % 100 % 1035,7 hPa 0,0 l/m 8,0 km/h (2 Bft) 2 min 0 min 8,0 km/h (2 Bft)
07.03.2011 15:22 17,5 C 10,7 C 0,0 UV-I 4,8 C 29 % 26 % 100 % 1035,7 hPa 0,0 l/m 8,4 km/h (2 Bft) 2 min 0 min 9,0 km/h (2 Bft)
07.03.2011 15:24 17,5 C 10,7 C 0,0 UV-I 4,8 C 29 % 26 % 100 % 1035,7 hPa 0,0 l/m 9,2 km/h (2 Bft) 2 min 0 min 10,6 km/h (2 Bft)
07.03.2011 15:26 17,6 C 10,7 C 0,0 UV-I 4,8 C 29 % 27 % 100 % 1034,9 hPa 0,0 l/m 8,8 km/h (2 Bft) 2 min 0 min 9,3 km/h (2 Bft)
07.03.2011 15:28 17,6 C 10,8 C 0,0 UV-I 4,6 C 29 % 26 % 100 % 1034,9 hPa 0,0 l/m 9,6 km/h (2 Bft) 2 min 0 min 7,4 km/h (2 Bft)
07.03.2011 15:30 17,7 C 10,8 C 0,0 UV-I 4,6 C 29 % 26 % 100 % 1034,9 hPa 0,0 l/m 9,2 km/h (2 Bft) 2 min 0 min 12,2 km/h (2 Bft)
07.03.2011 15:32 17,7 C 10,9 C 0,0 UV-I 4,6 C 29 % 26 % 100 % 1034,9 hPa 0,0 l/m 8,4 km/h (2 Bft) 2 min 0 min 9,7 km/h (2 Bft)
07.03.2011 15:34 17,7 C 10,9 C 0,0 UV-I 4,5 C 29 % 26 % 100 % 1034,9 hPa 0,0 l/m 8,8 km/h (2 Bft) 2 min 0 min 11,6 km/h (2 Bft)
07.03.2011 15:36 17,8 C 10,8 C 0,0 UV-I 4,6 C 29 % 24 % 100 % 1034,9 hPa 0,0 l/m 9,2 km/h (2 Bft) 2 min 0 min 8,7 km/h (2 Bft)
07.03.2011 15:38 17,8 C 10,8 C 0,0 UV-I 4,4 C 29 % 24 % 100 % 1034,9 hPa 0,0 l/m 8,8 km/h (2 Bft) 2 min 0 min 15,1 km/h (3 Bft)
07.03.2011 15:40 17,8 C 10,8 C 0,0 UV-I 4,4 C 28 % 24 % 100 % 1034,9 hPa 0,0 l/m 9,6 km/h (2 Bft) 2 min 0 min 9,3 km/h (2 Bft)
07.03.2011 15:42 17,9 C 10,8 C 0,0 UV-I 4,3 C 28 % 24 % 100 % 1034,9 hPa 0,0 l/m 10,0 km/h (2 Bft) 2 min 0 min 11,3 km/h (2 Bft)
07.03.2011 15:44 17,9 C 10,9 C 0,0 UV-I 4,1 C 28 % 24 % 100 % 1034,9 hPa 0,0 l/m 10,4 km/h (2 Bft) 2 min 0 min 13,8 km/h (3 Bft)
07.03.2011 15:46 17,9 C 10,7 C 0,0 UV-I 4,1 C 28 % 24 % 100 % 1034,2 hPa 0,0 l/m 10,8 km/h (2 Bft) 2 min 0 min 18,0 km/h (3 Bft)
07.03.2011 15:48 17,9 C 10,7 C 0,0 UV-I 3,9 C 28 % 24 % 100 % 1034,2 hPa 0,0 l/m 12,0 km/h (2 Bft) 2 min 0 min 13,5 km/h (3 Bft)
07.03.2011 15:50 18,0 C 10,7 C 0,0 UV-I 3,7 C 28 % 24 % 100 % 1034,2 hPa 0,0 l/m 12,4 km/h (3 Bft) 2 min 0 min 7,7 km/h (2 Bft)
07.03.2011 15:52 18,0 C 10,7 C 0,0 UV-I 3,7 C 28 % 26 % 100 % 1034,2 hPa 0,0 l/m 12,4 km/h (3 Bft) 2 min 0 min 7,1 km/h (2 Bft)
07.03.2011 15:54 18,0 C 10,7 C 0,0 UV-I 3,8 C 28 % 26 % 100 % 1034,2 hPa 0,0 l/m 11,2 km/h (2 Bft) 2 min 0 min 0,0 km/h (0 Bft)
07.03.2011 15:56 18,0 C 10,9 C 0,0 UV-I 3,9 C 28 % 26 % 100 % 1034,2 hPa 0,0 l/m 10,0 km/h (2 Bft) 2 min 0 min 3,5 km/h (1 Bft)
07.03.2011 15:58 18,1 C 10,9 C 0,0 UV-I 4,1 C 28 % 24 % 100 % 1034,2 hPa 0,0 l/m 8,8 km/h (2 Bft) 2 min 0 min 12,6 km/h (3 Bft)
07.03.2011 16:00 18,1 C 10,9 C 0,0 UV-I 4,2 C 28 % 25 % 100 % 1034,2 hPa 0,0 l/m 8,4 km/h (2 Bft) 2 min 0 min 21,2 km/h (4 Bft)
07.03.2011 16:02 18,1 C 10,9 C 0,0 UV-I 4,0 C 28 % 24 % 100 % 1034,2 hPa 0,0 l/m 8,8 km/h (2 Bft) 2 min 0 min 29,9 km/h (5 Bft)
07.03.2011 16:04 18,1 C 10,8 C 0,0 UV-I 4,0 C 28 % 24 % 100 % 1034,2 hPa 0,0 l/m 9,6 km/h (2 Bft) 2 min 0 min 12,9 km/h (3 Bft)
07.03.2011 16:06 18,2 C 10,8 C 0,0 UV-I 3,9 C 28 % 24 % 100 % 1033,8 hPa 0,0 l/m 9,6 km/h (2 Bft) 2 min 0 min 3,9 km/h (1 Bft)
07.03.2011 16:08 18,2 C 10,8 C 0,0 UV-I 4,0 C 28 % 26 % 100 % 1033,8 hPa 0,0 l/m 10,0 km/h (2 Bft) 2 min 0 min 10,3 km/h (2 Bft)
07.03.2011 16:10 18,2 C 10,9 C 0,0 UV-I 3,9 C 28 % 24 % 100 % 1033,8 hPa 0,0 l/m 10,0 km/h (2 Bft) 2 min 0 min 9,3 km/h (2 Bft)
07.03.2011 16:12 18,2 C 10,8 C 0,0 UV-I 4,0 C 28 % 24 % 100 % 1033,8 hPa 0,0 l/m 9,2 km/h (2 Bft) 2 min 0 min 16,7 km/h (3 Bft)
07.03.2011 16:14 18,2 C 10,8 C 0,0 UV-I 3,9 C 28 % 24 % 100 % 1033,8 hPa 0,0 l/m 9,2 km/h (2 Bft) 2 min 0 min 14,5 km/h (3 Bft)
07.03.2011 16:16 18,2 C 10,8 C 0,0 UV-I 3,8 C 28 % 24 % 100 % 1033,8 hPa 0,0 l/m 8,4 km/h (2 Bft) 2 min 0 min 12,2 km/h (2 Bft)
07.03.2011 16:18 18,2 C 10,8 C 0,0 UV-I 3,7 C 28 % 26 % 100 % 1033,8 hPa 0,0 l/m 8,8 km/h (2 Bft) 2 min 0 min 6,8 km/h (2 Bft)
07.03.2011 16:20 18,3 C 10,8 C 0,0 UV-I 3,6 C 28 % 26 % 100 % 1033,8 hPa 0,0 l/m 9,6 km/h (2 Bft) 2 min 0 min 21,9 km/h (4 Bft)
07.03.2011 16:22 18,3 C 10,6 C 0,0 UV-I 3,7 C 28 % 24 % 100 % 1033,8 hPa 0,0 l/m 9,6 km/h (2 Bft) 2 min 0 min 0,0 km/h (0 Bft)
07.03.2011 16:24 18,3 C 10,6 C 0,0 UV-I 3,6 C 28 % 25 % 100 % 1033,8 hPa 0,0 l/m 8,8 km/h (2 Bft) 2 min 0 min 6,4 km/h (2 Bft)
07.03.2011 16:26 18,3 C 10,7 C 0,0 UV-I 3,5 C 28 % 24 % 100 % 1033,2 hPa 0,0 l/m 9,6 km/h (2 Bft) 2 min 0 min 12,9 km/h (3 Bft)
07.03.2011 16:28 18,2 C 10,7 C 0,0 UV-I 3,4 C 28 % 26 % 97 % 1033,2 hPa 0,0 l/m 9,2 km/h (2 Bft) 2 min 0 min 5,8 km/h (2 Bft)
07.03.2011 16:30 18,3 C 10,5 C 0,0 UV-I 3,6 C 28 % 24 % 100 % 1033,2 hPa 0,0 l/m 9,6 km/h (2 Bft) 2 min 0 min 12,2 km/h (2 Bft)
07.03.2011 16:32 18,2 C 10,5 C 0,0 UV-I 3,5 C 28 % 26 % 100 % 1033,2 hPa 0,0 l/m 9,2 km/h (2 Bft) 2 min 0 min 8,4 km/h (2 Bft)
07.03.2011 16:34 18,3 C 10,3 C 0,0 UV-I 3,7 C 28 % 24 % 100 % 1033,2 hPa 0,0 l/m 9,2 km/h (2 Bft) 2 min 0 min 6,8 km/h (2 Bft)
07.03.2011 16:36 18,3 C 10,3 C 0,0 UV-I 3,6 C 28 % 24 % 100 % 1033,2 hPa 0,0 l/m 9,2 km/h (2 Bft) 2 min 0 min 11,6 km/h (2 Bft)
07.03.2011 16:38 18,3 C 10,0 C 0,0 UV-I 3,8 C 28 % 24 % 100 % 1033,2 hPa 0,0 l/m 8,8 km/h (2 Bft) 2 min 0 min 5,5 km/h (1 Bft)
07.03.2011 16:40 18,3 C 10,1 C 0,0 UV-I 3,6 C 28 % 24 % 100 % 1033,2 hPa 0,0 l/m 8,8 km/h (2 Bft) 2 min 0 min 9,7 km/h (2 Bft)
07.03.2011 16:42 18,2 C 10,0 C 0,0 UV-I 3,6 C 28 % 24 % 100 % 1033,2 hPa 0,0 l/m 8,8 km/h (2 Bft) 2 min 0 min 13,5 km/h (3 Bft)
07.03.2011 16:44 18,2 C 10,0 C 0,0 UV-I 3,3 C 28 % 24 % 94 % 1033,2 hPa 0,0 l/m 8,8 km/h (2 Bft) 2 min 0 min 12,6 km/h (3 Bft)
07.03.2011 16:46 18,2 C 10,0 C 0,0 UV-I 3,1 C 28 % 23 % 89 % 1032,8 hPa 0,0 l/m 8,8 km/h (2 Bft) 2 min 0 min 11,9 km/h (2 Bft)
07.03.2011 16:48 18,2 C 10,0 C 0,0 UV-I 3,1 C 28 % 23 % 89 % 1032,8 hPa 0,0 l/m 8,8 km/h (2 Bft) 2 min 0 min 8,7 km/h (2 Bft)
07.03.2011 16:50 18,2 C 10,1 C 0,0 UV-I 3,0 C 28 % 23 % 86 % 1032,8 hPa 0,0 l/m 9,2 km/h (2 Bft) 2 min 0 min 10,3 km/h (2 Bft)
07.03.2011 16:52 18,2 C 10,0 C 0,0 UV-I 3,2 C 28 % 24 % 91 % 1032,8 hPa 0,0 l/m 10,0 km/h (2 Bft) 2 min 0 min 14,8 km/h (3 Bft)
07.03.2011 16:54 18,2 C 10,0 C 0,0 UV-I 3,1 C 28 % 24 % 89 % 1032,8 hPa 0,0 l/m 10,0 km/h (2 Bft) 2 min 0 min 9,7 km/h (2 Bft)
07.03.2011 16:56 18,2 C 10,0 C 0,0 UV-I 2,9 C 28 % 24 % 83 % 1032,8 hPa 0,0 l/m 9,6 km/h (2 Bft) 2 min 0 min 10,3 km/h (2 Bft)
07.03.2011 16:58 18,2 C 10,1 C 0,0 UV-I 2,8 C 28 % 24 % 80 % 1032,8 hPa 0,0 l/m 8,8 km/h (2 Bft) 2 min 0 min 8,0 km/h (2 Bft)
07.03.2011 17:00 18,1 C 10,0 C 0,0 UV-I 2,9 C 28 % 24 % 83 % 1032,8 hPa 0,0 l/m 8,4 km/h (2 Bft) 2 min 0 min 6,8 km/h (2 Bft)
07.03.2011 17:02 18,2 C 10,0 C 0,0 UV-I 2,9 C 28 % 24 % 83 % 1032,8 hPa 0,0 l/m 7,6 km/h (2 Bft) 2 min 0 min 7,4 km/h (2 Bft)
07.03.2011 17:04 18,1 C 9,8 C 0,0 UV-I 3,1 C 28 % 24 % 89 % 1032,8 hPa 0,0 l/m 7,2 km/h (2 Bft) 2 min 0 min 8,4 km/h (2 Bft)
07.03.2011 17:06 18,1 C 9,6 C 0,0 UV-I 3,3 C 28 % 24 % 94 % 1032,6 hPa 0,0 l/m 7,2 km/h (2 Bft) 2 min 0 min 4,8 km/h (1 Bft)
07.03.2011 17:08 18,1 C 9,6 C 0,0 UV-I 3,3 C 28 % 24 % 94 % 1032,6 hPa 0,0 l/m 7,2 km/h (2 Bft) 2 min 0 min 6,4 km/h (2 Bft)
07.03.2011 17:10 18,1 C 9,5 C 0,0 UV-I 3,3 C 28 % 24 % 94 % 1032,6 hPa 0,0 l/m 7,2 km/h (2 Bft) 2 min 0 min 10,6 km/h (2 Bft)
07.03.2011 17:12 18,1 C 9,3 C 0,0 UV-I 3,3 C 28 % 24 % 94 % 1032,6 hPa 0,0 l/m 7,6 km/h (2 Bft) 2 min 0 min 14,5 km/h (3 Bft)
07.03.2011 17:14 18,1 C 9,2 C 0,0 UV-I 3,4 C 28 % 24 % 97 % 1032,6 hPa 0,0 l/m 7,6 km/h (2 Bft) 2 min 0 min 9,7 km/h (2 Bft)
07.03.2011 17:16 18,0 C 9,2 C 0,0 UV-I 3,3 C 28 % 24 % 94 % 1032,6 hPa 0,0 l/m 7,6 km/h (2 Bft) 2 min 0 min 9,0 km/h (2 Bft)
07.03.2011 17:18 18,0 C 9,1 C 0,0 UV-I 3,2 C 28 % 24 % 91 % 1032,6 hPa 0,0 l/m 7,6 km/h (2 Bft) 2 min 0 min 5,8 km/h (2 Bft)
07.03.2011 17:20 18,0 C 9,1 C 0,0 UV-I 2,9 C 28 % 25 % 83 % 1032,6 hPa 0,0 l/m 7,6 km/h (2 Bft) 2 min 0 min 5,8 km/h (2 Bft)
07.03.2011 17:22 18,0 C 9,0 C 0,0 UV-I 2,5 C 28 % 25 % 71 % 1032,6 hPa 0,0 l/m 6,4 km/h (2 Bft) 2 min 0 min 6,4 km/h (2 Bft)
07.03.2011 17:24 18,0 C 8,9 C 0,0 UV-I 1,9 C 28 % 25 % 54 % 1032,6 hPa 0,0 l/m 6,0 km/h (2 Bft) 2 min 0 min 13,5 km/h (3 Bft)
07.03.2011 17:26 18,0 C 8,8 C 0,0 UV-I 1,5 C 28 % 25 % 43 % 1032,4 hPa 0,0 l/m 4,8 km/h (1 Bft) 2 min 0 min 4,5 km/h (1 Bft)
07.03.2011 17:28 18,0 C 8,8 C 0,0 UV-I 0,9 C 28 % 25 % 26 % 1032,4 hPa 0,0 l/m 3,6 km/h (1 Bft) 0 min 0 min 3,5 km/h (1 Bft)
07.03.2011 17:30 18,0 C 8,8 C 0,0 UV-I 0,4 C 28 % 25 % 11 % 1032,4 hPa 0,0 l/m 4,0 km/h (1 Bft) 0 min 0 min 6,8 km/h (2 Bft)
07.03.2011 17:32 17,9 C 8,7 C 0,0 UV-I 0,2 C 28 % 26 % 6 % 1032,4 hPa 0,0 l/m 4,0 km/h (1 Bft) 0 min 0 min 0,0 km/h (0 Bft)
07.03.2011 17:34 17,9 C 8,7 C 0,0 UV-I 0,0 C 28 % 25 % 0 % 1032,4 hPa 0,0 l/m 3,2 km/h (1 Bft) 0 min 0 min 3,5 km/h (1 Bft)
07.03.2011 17:36 17,9 C 8,7 C 0,0 UV-I 0,0 C 28 % 25 % 0 % 1032,4 hPa 0,0 l/m 4,0 km/h (1 Bft) 0 min 0 min 6,8 km/h (2 Bft)
07.03.2011 17:38 17,8 C 8,7 C 0,0 UV-I 0,0 C 28 % 25 % 0 % 1032,4 hPa 0,0 l/m 4,4 km/h (1 Bft) 0 min 0 min 5,1 km/h (1 Bft)
07.03.2011 17:40 17,8 C 8,7 C 0,0 UV-I 0,0 C 28 % 25 % 0 % 1032,4 hPa 0,0 l/m 5,2 km/h (1 Bft) 0 min 0 min 5,8 km/h (2 Bft)
07.03.2011 17:42 17,8 C 8,5 C 0,0 UV-I 0,0 C 28 % 25 % 0 % 1032,4 hPa 0,0 l/m 5,2 km/h (1 Bft) 0 min 0 min 4,2 km/h (1 Bft)
07.03.2011 17:44 17,7 C 8,5 C 0,0 UV-I 0,0 C 28 % 25 % 0 % 1032,4 hPa 0,0 l/m 6,8 km/h (2 Bft) 0 min 0 min 4,2 km/h (1 Bft)
07.03.2011 17:46 17,7 C 8,5 C 0,0 UV-I 0,0 C 28 % 25 % 0 % 1031,8 hPa 0,0 l/m 7,6 km/h (2 Bft) 0 min 0 min 9,0 km/h (2 Bft)
07.03.2011 17:48 17,6 C 8,7 C 0,0 UV-I 0,0 C 28 % 25 % 0 % 1031,8 hPa 0,0 l/m 7,2 km/h (2 Bft) 0 min 0 min 0,0 km/h (0 Bft)
07.03.2011 17:50 17,6 C 8,7 C 0,0 UV-I 0,0 C 28 % 25 % 0 % 1031,8 hPa 0,0 l/m 6,0 km/h (2 Bft) 0 min 0 min 5,8 km/h (2 Bft)
07.03.2011 17:52 17,6 C 8,6 C 0,0 UV-I 0,0 C 28 % 25 % 0 % 1031,8 hPa 0,0 l/m 6,4 km/h (2 Bft) 0 min 0 min 8,4 km/h (2 Bft)
07.03.2011 17:54 17,6 C 8,7 C 0,0 UV-I 0,0 C 28 % 25 % 0 % 1031,8 hPa 0,0 l/m 5,2 km/h (1 Bft) 0 min 0 min 0,0 km/h (0 Bft)
07.03.2011 17:56 17,6 C 8,6 C 0,0 UV-I 0,0 C 28 % 25 % 0 % 1031,8 hPa 0,0 l/m 4,4 km/h (1 Bft) 0 min 0 min 3,5 km/h (1 Bft)
07.03.2011 17:58 17,5 C 8,5 C 0,0 UV-I 0,0 C 28 % 25 % 0 % 1031,8 hPa 0,0 l/m 4,4 km/h (1 Bft) 0 min 0 min 6,8 km/h (2 Bft)
07.03.2011 18:00 17,5 C 8,4 C 0,0 UV-I 0,0 C 28 % 25 % 0 % 1031,8 hPa 0,0 l/m 5,6 km/h (1 Bft) 0 min 0 min 3,5 km/h (1 Bft)
07.03.2011 18:02 17,4 C 8,3 C 0,0 UV-I 0,0 C 28 % 25 % 0 % 1031,8 hPa 0,0 l/m 4,8 km/h (1 Bft) 0 min 0 min 4,2 km/h (1 Bft)
07.03.2011 18:04 17,4 C 8,3 C 0,0 UV-I 0,0 C 28 % 25 % 0 % 1031,8 hPa 0,0 l/m 4,4 km/h (1 Bft) 0 min 0 min 8,0 km/h (2 Bft)
07.03.2011 18:06 17,2 C 8,3 C 0,0 UV-I 0,0 C 29 % 25 % 0 % 1031,1 hPa 0,0 l/m 5,2 km/h (1 Bft) 0 min 0 min 9,3 km/h (2 Bft)
07.03.2011 18:08 17,3 C 8,1 C 0,0 UV-I 0,0 C 28 % 25 % 0 % 1031,1 hPa 0,0 l/m 5,2 km/h (1 Bft) 0 min 0 min 4,2 km/h (1 Bft)
07.03.2011 18:10 17,2 C 8,0 C 0,0 UV-I 0,0 C 29 % 25 % 0 % 1031,1 hPa 0,0 l/m 4,4 km/h (1 Bft) 0 min 0 min 0,0 km/h (0 Bft)
07.03.2011 18:12 17,2 C 8,0 C 0,0 UV-I 0,0 C 29 % 26 % 0 % 1031,1 hPa 0,0 l/m 3,6 km/h (1 Bft) 0 min 0 min 0,0 km/h (0 Bft)
07.03.2011 18:14 17,2 C 8,0 C 0,0 UV-I 0,0 C 29 % 25 % 0 % 1031,1 hPa 0,0 l/m 4,8 km/h (1 Bft) 0 min 0 min 7,1 km/h (2 Bft)
07.03.2011 18:16 17,1 C 7,9 C 0,0 UV-I 0,0 C 29 % 25 % 0 % 1031,1 hPa 0,0 l/m 4,8 km/h (1 Bft) 0 min 0 min 7,7 km/h (2 Bft)
07.03.2011 18:18 17,1 C 7,9 C 0,0 UV-I 0,0 C 29 % 26 % 0 % 1031,1 hPa 0,0 l/m 4,0 km/h (1 Bft) 0 min 0 min 3,2 km/h (1 Bft)
07.03.2011 18:20 17,0 C 7,9 C 0,0 UV-I 0,0 C 29 % 26 % 0 % 1031,1 hPa 0,0 l/m 4,0 km/h (1 Bft) 0 min 0 min 8,7 km/h (2 Bft)
07.03.2011 18:22 17,0 C 7,8 C 0,0 UV-I 0,0 C 29 % 26 % 0 % 1031,1 hPa 0,0 l/m 4,0 km/h (1 Bft) 0 min 0 min 3,2 km/h (1 Bft)
07.03.2011 18:24 16,9 C 7,7 C 0,0 UV-I 0,0 C 29 % 26 % 0 % 1031,1 hPa 0,0 l/m 4,4 km/h (1 Bft) 0 min 0 min 7,4 km/h (2 Bft)
07.03.2011 18:26 16,9 C 7,6 C 0,0 UV-I 0,0 C 29 % 26 % 0 % 1030,9 hPa 0,0 l/m 3,6 km/h (1 Bft) 0 min 0 min 4,8 km/h (1 Bft)
07.03.2011 18:28 16,8 C 7,6 C 0,0 UV-I 0,0 C 29 % 26 % 0 % 1030,9 hPa 0,0 l/m 3,6 km/h (1 Bft) 0 min 0 min 0,0 km/h (0 Bft)
07.03.2011 18:30 16,8 C 7,6 C 0,0 UV-I 0,0 C 29 % 27 % 0 % 1030,9 hPa 0,0 l/m 4,0 km/h (1 Bft) 0 min 0 min 3,5 km/h (1 Bft)
07.03.2011 18:32 16,7 C 7,5 C 0,0 UV-I 0,0 C 29 % 28 % 0 % 1030,9 hPa 0,0 l/m 3,6 km/h (1 Bft) 0 min 0 min 3,9 km/h (1 Bft)
07.03.2011 18:34 16,7 C 7,5 C 0,0 UV-I 0,0 C 29 % 28 % 0 % 1030,9 hPa 0,0 l/m 3,6 km/h (1 Bft) 0 min 0 min 3,2 km/h (1 Bft)
07.03.2011 18:36 16,6 C 7,5 C 0,0 UV-I 0,0 C 29 % 28 % 0 % 1030,9 hPa 0,0 l/m 3,2 km/h (1 Bft) 0 min 0 min 6,4 km/h (2 Bft)
07.03.2011 18:38 16,6 C 7,3 C 0,0 UV-I 0,0 C 29 % 28 % 0 % 1030,9 hPa 0,0 l/m 3,2 km/h (1 Bft) 0 min 0 min 3,2 km/h (1 Bft)
07.03.2011 18:40 16,5 C 7,2 C 0,0 UV-I 0,0 C 29 % 27 % 0 % 1030,9 hPa 0,0 l/m 3,2 km/h (1 Bft) 0 min 0 min 6,4 km/h (2 Bft)
07.03.2011 18:42 16,4 C 7,2 C 0,0 UV-I 0,0 C 29 % 27 % 0 % 1030,9 hPa 0,0 l/m 3,2 km/h (1 Bft) 0 min 0 min 0,0 km/h (0 Bft)
07.03.2011 18:44 16,4 C 7,2 C 0,0 UV-I 0,0 C 29 % 27 % 0 % 1030,9 hPa 0,0 l/m 3,6 km/h (1 Bft) 0 min 0 min 7,7 km/h (2 Bft)
07.03.2011 18:46 16,2 C 7,1 C 0,0 UV-I 0,0 C 29 % 28 % 0 % 1030,6 hPa 0,0 l/m 3,6 km/h (1 Bft) 0 min 0 min 4,8 km/h (1 Bft)
07.03.2011 18:48 16,3 C 7,0 C 0,0 UV-I 0,0 C 29 % 29 % 0 % 1030,6 hPa 0,0 l/m 3,6 km/h (1 Bft) 0 min 0 min 0,0 km/h (0 Bft)
07.03.2011 18:50 16,2 C 7,1 C 0,0 UV-I 0,0 C 29 % 29 % 0 % 1030,6 hPa 0,0 l/m 3,6 km/h (1 Bft) 0 min 0 min 3,2 km/h (1 Bft)
07.03.2011 18:52 16,2 C 6,9 C 0,0 UV-I 0,0 C 29 % 29 % 0 % 1030,6 hPa 0,0 l/m 2,8 km/h (1 Bft) 0 min 0 min 0,0 km/h (0 Bft)
07.03.2011 18:54 16,1 C 6,9 C 0,0 UV-I 0,0 C 29 % 29 % 0 % 1030,6 hPa 0,0 l/m 3,2 km/h (1 Bft) 0 min 0 min 4,5 km/h (1 Bft)
07.03.2011 18:56 15,9 C 6,8 C 0,0 UV-I 0,0 C 29 % 29 % 0 % 1030,6 hPa 0,0 l/m 1,6 km/h (1 Bft) 0 min 0 min 0,0 km/h (0 Bft)
07.03.2011 18:58 16,0 C 6,8 C 0,0 UV-I 0,0 C 29 % 29 % 0 % 1030,6 hPa 0,0 l/m 1,6 km/h (1 Bft) 0 min 0 min 5,5 km/h (1 Bft)
07.03.2011 19:00 15,8 C 6,7 C 0,0 UV-I 0,0 C 29 % 29 % 0 % 1030,6 hPa 0,0 l/m 2,4 km/h (1 Bft) 0 min 0 min 6,1 km/h (2 Bft)
07.03.2011 19:02 15,9 C 6,6 C 0,0 UV-I 0,0 C 29 % 29 % 0 % 1030,6 hPa 0,0 l/m 2,4 km/h (1 Bft) 0 min 0 min 8,4 km/h (2 Bft)
07.03.2011 19:04 15,9 C 6,7 C 0,0 UV-I 0,0 C 29 % 29 % 0 % 1030,6 hPa 0,0 l/m 3,2 km/h (1 Bft) 0 min 0 min 5,1 km/h (1 Bft)
07.03.2011 19:06 15,8 C 6,7 C 0,0 UV-I 0,0 C 29 % 29 % 0 % 1030,4 hPa 0,0 l/m 3,2 km/h (1 Bft) 0 min 0 min 6,4 km/h (2 Bft)
07.03.2011 19:08 15,8 C 6,6 C 0,0 UV-I 0,0 C 29 % 30 % 0 % 1030,4 hPa 0,0 l/m 3,6 km/h (1 Bft) 0 min 0 min 5,8 km/h (2 Bft)
07.03.2011 19:10 15,7 C 6,5 C 0,0 UV-I 0,0 C 29 % 30 % 0 % 1030,4 hPa 0,0 l/m 3,6 km/h (1 Bft) 0 min 0 min 10,9 km/h (2 Bft)
07.03.2011 19:12 15,6 C 6,5 C 0,0 UV-I 0,0 C 29 % 30 % 0 % 1030,4 hPa 0,0 l/m 3,2 km/h (1 Bft) 0 min 0 min 4,8 km/h (1 Bft)
07.03.2011 19:14 15,6 C 6,4 C 0,0 UV-I 0,0 C 29 % 30 % 0 % 1030,4 hPa 0,0 l/m 2,8 km/h (1 Bft) 0 min 0 min 3,5 km/h (1 Bft)
07.03.2011 19:16 15,6 C 6,4 C 0,0 UV-I 0,0 C 29 % 30 % 0 % 1030,4 hPa 0,0 l/m 3,2 km/h (1 Bft) 0 min 0 min 0,0 km/h (0 Bft)
07.03.2011 19:18 15,4 C 6,4 C 0,0 UV-I 0,0 C 29 % 30 % 0 % 1030,4 hPa 0,0 l/m 4,0 km/h (1 Bft) 0 min 0 min 0,0 km/h (0 Bft)
07.03.2011 19:20 15,5 C 6,4 C 0,0 UV-I 0,0 C 29 % 30 % 0 % 1030,4 hPa 0,0 l/m 4,8 km/h (1 Bft) 0 min 0 min 7,1 km/h (2 Bft)
07.03.2011 19:22 15,3 C 6,4 C 0,0 UV-I 0,0 C 29 % 30 % 0 % 1030,4 hPa 0,0 l/m 4,8 km/h (1 Bft) 0 min 0 min 5,5 km/h (1 Bft)
07.03.2011 19:24 15,4 C 6,4 C 0,0 UV-I 0,0 C 29 % 30 % 0 % 1030,4 hPa 0,0 l/m 4,8 km/h (1 Bft) 0 min 0 min 5,8 km/h (2 Bft)
07.03.2011 19:26 15,4 C 6,3 C 0,0 UV-I 0,0 C 29 % 30 % 0 % 1030,1 hPa 0,0 l/m 4,8 km/h (1 Bft) 0 min 0 min 7,7 km/h (2 Bft)
07.03.2011 19:28 15,2 C 6,3 C 0,0 UV-I 0,0 C 30 % 30 % 0 % 1030,1 hPa 0,0 l/m 4,8 km/h (1 Bft) 0 min 0 min 0,0 km/h (0 Bft)
07.03.2011 19:30 15,3 C 6,3 C 0,0 UV-I 0,0 C 29 % 31 % 0 % 1030,1 hPa 0,0 l/m 4,8 km/h (1 Bft) 0 min 0 min 7,7 km/h (2 Bft)
07.03.2011 19:32 15,1 C 6,3 C 0,0 UV-I 0,0 C 29 % 31 % 0 % 1030,1 hPa 0,0 l/m 4,4 km/h (1 Bft) 0 min 0 min 6,8 km/h (2 Bft)
07.03.2011 19:34 15,2 C 6,3 C 0,0 UV-I 0,0 C 29 % 31 % 0 % 1030,1 hPa 0,0 l/m 4,0 km/h (1 Bft) 0 min 0 min 6,8 km/h (2 Bft)
07.03.2011 19:36 15,2 C 6,2 C 0,0 UV-I 0,0 C 30 % 30 % 0 % 1030,1 hPa 0,0 l/m 4,8 km/h (1 Bft) 0 min 0 min 7,1 km/h (2 Bft)
07.03.2011 19:38 15,1 C 6,1 C 0,0 UV-I 0,0 C 30 % 31 % 0 % 1030,1 hPa 0,0 l/m 4,4 km/h (1 Bft) 0 min 0 min 3,9 km/h (1 Bft)
07.03.2011 19:40 15,1 C 6,1 C 0,0 UV-I 0,0 C 30 % 31 % 0 % 1030,1 hPa 0,0 l/m 4,8 km/h (1 Bft) 0 min 0 min 6,4 km/h (2 Bft)
07.03.2011 19:42 15,0 C 6,1 C 0,0 UV-I 0,0 C 30 % 31 % 0 % 1030,1 hPa 0,0 l/m 4,8 km/h (1 Bft) 0 min 0 min 5,5 km/h (1 Bft)
07.03.2011 19:44 15,0 C 6,1 C 0,0 UV-I 0,0 C 30 % 31 % 0 % 1030,1 hPa 0,0 l/m 4,8 km/h (1 Bft) 0 min 0 min 6,8 km/h (2 Bft)
07.03.2011 19:46 15,0 C 6,0 C 0,0 UV-I 0,0 C 30 % 31 % 0 % 1030,1 hPa 0,0 l/m 4,4 km/h (1 Bft) 0 min 0 min 5,5 km/h (1 Bft)
07.03.2011 19:48 14,8 C 6,0 C 0,0 UV-I 0,0 C 30 % 30 % 0 % 1030,1 hPa 0,0 l/m 4,8 km/h (1 Bft) 0 min 0 min 12,2 km/h (2 Bft)
07.03.2011 19:50 14,8 C 6,0 C 0,0 UV-I 0,0 C 30 % 30 % 0 % 1030,1 hPa 0,0 l/m 5,6 km/h (1 Bft) 0 min 0 min 8,7 km/h (2 Bft)
07.03.2011 19:52 14,8 C 6,0 C 0,0 UV-I 0,0 C 30 % 31 % 0 % 1030,1 hPa 0,0 l/m 5,6 km/h (1 Bft) 0 min 0 min 9,0 km/h (2 Bft)
07.03.2011 19:54 14,8 C 6,0 C 0,0 UV-I 0,0 C 30 % 30 % 0 % 1030,1 hPa 0,0 l/m 5,6 km/h (1 Bft) 0 min 0 min 7,1 km/h (2 Bft)
07.03.2011 19:56 14,8 C 6,0 C 0,0 UV-I 0,0 C 30 % 31 % 0 % 1030,1 hPa 0,0 l/m 4,8 km/h (1 Bft) 0 min 0 min 0,0 km/h (0 Bft)
07.03.2011 19:58 14,6 C 6,0 C 0,0 UV-I 0,0 C 30 % 30 % 0 % 1030,1 hPa 0,0 l/m 5,6 km/h (1 Bft) 0 min 0 min 7,7 km/h (2 Bft)
07.03.2011 20:00 14,7 C 6,0 C 0,0 UV-I 0,0 C 30 % 30 % 0 % 1030,1 hPa 0,0 l/m 5,6 km/h (1 Bft) 0 min 0 min 7,7 km/h (2 Bft)
07.03.2011 20:02 14,7 C 6,0 C 0,0 UV-I 0,0 C 30 % 31 % 0 % 1030,1 hPa 0,0 l/m 5,6 km/h (1 Bft) 0 min 0 min 5,1 km/h (1 Bft)
07.03.2011 20:04 14,6 C 6,0 C 0,0 UV-I 0,0 C 30 % 31 % 0 % 1030,1 hPa 0,0 l/m 4,8 km/h (1 Bft) 0 min 0 min 6,1 km/h (2 Bft)
07.03.2011 20:06 14,6 C 5,9 C 0,0 UV-I 0,0 C 30 % 31 % 0 % 1029,5 hPa 0,0 l/m 5,2 km/h (1 Bft) 0 min 0 min 12,9 km/h (3 Bft)
07.03.2011 20:08 14,6 C 5,9 C 0,0 UV-I 0,0 C 30 % 31 % 0 % 1029,5 hPa 0,0 l/m 5,2 km/h (1 Bft) 0 min 0 min 7,7 km/h (2 Bft)
07.03.2011 20:10 14,4 C 5,8 C 0,0 UV-I 0,0 C 30 % 31 % 0 % 1029,5 hPa 0,0 l/m 5,2 km/h (1 Bft) 0 min 0 min 20,0 km/h (4 Bft)
07.03.2011 20:12 14,4 C 5,8 C 0,0 UV-I 0,0 C 30 % 31 % 0 % 1029,5 hPa 0,0 l/m 5,6 km/h (1 Bft) 0 min 0 min 4,8 km/h (1 Bft)
07.03.2011 20:14 14,5 C 5,9 C 0,0 UV-I 0,0 C 30 % 31 % 0 % 1029,5 hPa 0,0 l/m 5,2 km/h (1 Bft) 0 min 0 min 4,5 km/h (1 Bft)
07.03.2011 20:16 14,3 C 5,9 C 0,0 UV-I 0,0 C 30 % 31 % 0 % 1029,5 hPa 0,0 l/m 5,2 km/h (1 Bft) 0 min 0 min 5,1 km/h (1 Bft)
07.03.2011 20:18 14,3 C 5,8 C 0,0 UV-I 0,0 C 30 % 31 % 0 % 1029,5 hPa 0,0 l/m 5,6 km/h (1 Bft) 0 min 0 min 6,4 km/h (2 Bft)
07.03.2011 20:20 14,4 C 5,7 C 0,0 UV-I 0,0 C 30 % 31 % 0 % 1029,5 hPa 0,0 l/m 5,2 km/h (1 Bft) 0 min 0 min 9,7 km/h (2 Bft)
07.03.2011 20:22 14,4 C 5,7 C 0,0 UV-I 0,0 C 30 % 31 % 0 % 1029,5 hPa 0,0 l/m 4,8 km/h (1 Bft) 0 min 0 min 15,4 km/h (3 Bft)
07.03.2011 20:24 14,4 C 5,6 C 0,0 UV-I 0,0 C 30 % 32 % 0 % 1029,5 hPa 0,0 l/m 4,4 km/h (1 Bft) 0 min 0 min 5,1 km/h (1 Bft)
07.03.2011 20:26 14,2 C 5,6 C 0,0 UV-I 0,0 C 30 % 32 % 0 % 1029,5 hPa 0,0 l/m 4,8 km/h (1 Bft) 0 min 0 min 4,8 km/h (1 Bft)
07.03.2011 20:28 14,3 C 5,6 C 0,0 UV-I 0,0 C 30 % 31 % 0 % 1029,5 hPa 0,0 l/m 4,8 km/h (1 Bft) 0 min 0 min 3,2 km/h (1 Bft)
07.03.2011 20:30 14,3 C 5,7 C 0,0 UV-I 0,0 C 30 % 32 % 0 % 1029,5 hPa 0,0 l/m 4,4 km/h (1 Bft) 0 min 0 min 5,8 km/h (2 Bft)
07.03.2011 20:32 14,1 C 5,6 C 0,0 UV-I 0,0 C 30 % 32 % 0 % 1029,5 hPa 0,0 l/m 4,8 km/h (1 Bft) 0 min 0 min 7,1 km/h (2 Bft)
07.03.2011 20:34 14,2 C 5,6 C 0,0 UV-I 0,0 C 30 % 32 % 0 % 1029,5 hPa 0,0 l/m 5,2 km/h (1 Bft) 0 min 0 min 9,3 km/h (2 Bft)
07.03.2011 20:36 14,2 C 5,6 C 0,0 UV-I 0,0 C 30 % 32 % 0 % 1029,5 hPa 0,0 l/m 5,2 km/h (1 Bft) 0 min 0 min 0,0 km/h (0 Bft)
07.03.2011 20:38 14,2 C 5,5 C 0,0 UV-I 0,0 C 30 % 32 % 0 % 1029,5 hPa 0,0 l/m 4,4 km/h (1 Bft) 0 min 0 min 7,4 km/h (2 Bft)
07.03.2011 20:40 14,1 C 5,5 C 0,0 UV-I 0,0 C 30 % 32 % 0 % 1029,5 hPa 0,0 l/m 5,2 km/h (1 Bft) 0 min 0 min 6,8 km/h (2 Bft)
07.03.2011 20:42 14,1 C 5,5 C 0,0 UV-I 0,0 C 30 % 32 % 0 % 1029,5 hPa 0,0 l/m 5,6 km/h (1 Bft) 0 min 0 min 3,2 km/h (1 Bft)
07.03.2011 20:44 14,1 C 5,5 C 0,0 UV-I 0,0 C 30 % 32 % 0 % 1029,5 hPa 0,0 l/m 4,4 km/h (1 Bft) 0 min 0 min 0,0 km/h (0 Bft)
07.03.2011 20:46 14,1 C 5,5 C 0,0 UV-I 0,0 C 30 % 32 % 0 % 1029,5 hPa 0,0 l/m 4,0 km/h (1 Bft) 0 min 0 min 5,5 km/h (1 Bft)
07.03.2011 20:48 14,1 C 5,5 C 0,0 UV-I 0,0 C 30 % 32 % 0 % 1029,5 hPa 0,0 l/m 4,8 km/h (1 Bft) 0 min 0 min 13,8 km/h (3 Bft)
07.03.2011 20:50 13,9 C 5,5 C 0,0 UV-I 0,0 C 31 % 32 % 0 % 1029,5 hPa 0,0 l/m 4,8 km/h (1 Bft) 0 min 0 min 4,5 km/h (1 Bft)
07.03.2011 20:52 13,9 C 5,5 C 0,0 UV-I 0,0 C 31 % 32 % 0 % 1029,5 hPa 0,0 l/m 4,4 km/h (1 Bft) 0 min 0 min 5,1 km/h (1 Bft)
07.03.2011 20:54 13,9 C 5,4 C 0,0 UV-I 0,0 C 31 % 32 % 0 % 1029,5 hPa 0,0 l/m 5,2 km/h (1 Bft) 0 min 0 min 4,5 km/h (1 Bft)
07.03.2011 20:56 14,0 C 5,3 C 0,0 UV-I 0,0 C 31 % 32 % 0 % 1029,5 hPa 0,0 l/m 6,0 km/h (2 Bft) 0 min 0 min 0,0 km/h (0 Bft)
07.03.2011 20:58 14,0 C 5,3 C 0,0 UV-I 0,0 C 31 % 32 % 0 % 1029,5 hPa 0,0 l/m 6,4 km/h (2 Bft) 0 min 0 min 3,2 km/h (1 Bft)
07.03.2011 21:00 14,0 C 5,2 C 0,0 UV-I 0,0 C 31 % 33 % 0 % 1029,5 hPa 0,0 l/m 5,6 km/h (1 Bft) 0 min 0 min 5,5 km/h (1 Bft)
07.03.2011 21:02 13,8 C 5,2 C 0,0 UV-I 0,0 C 31 % 33 % 0 % 1029,5 hPa 0,0 l/m 6,0 km/h (2 Bft) 0 min 0 min 4,8 km/h (1 Bft)
07.03.2011 21:04 13,9 C 5,3 C 0,0 UV-I 0,0 C 31 % 33 % 0 % 1029,5 hPa 0,0 l/m 5,6 km/h (1 Bft) 0 min 0 min 6,8 km/h (2 Bft)
07.03.2011 21:06 13,9 C 5,2 C 0,0 UV-I 0,0 C 31 % 33 % 0 % 1029,5 hPa 0,0 l/m 5,2 km/h (1 Bft) 0 min 0 min 3,5 km/h (1 Bft)
07.03.2011 21:08 13,9 C 5,2 C 0,0 UV-I 0,0 C 31 % 33 % 0 % 1029,5 hPa 0,0 l/m 4,8 km/h (1 Bft) 0 min 0 min 4,8 km/h (1 Bft)
07.03.2011 21:10 13,9 C 5,1 C 0,0 UV-I 0,0 C 31 % 33 % 0 % 1029,5 hPa 0,0 l/m 4,8 km/h (1 Bft) 0 min 0 min 5,1 km/h (1 Bft)
07.03.2011 21:12 13,8 C 5,1 C 0,0 UV-I 0,0 C 31 % 33 % 0 % 1029,5 hPa 0,0 l/m 4,8 km/h (1 Bft) 0 min 0 min 7,7 km/h (2 Bft)
07.03.2011 21:14 13,8 C 5,1 C 0,0 UV-I 0,0 C 31 % 33 % 0 % 1029,5 hPa 0,0 l/m 4,8 km/h (1 Bft) 0 min 0 min 7,7 km/h (2 Bft)
07.03.2011 21:16 13,8 C 5,0 C 0,0 UV-I 0,0 C 31 % 33 % 0 % 1029,5 hPa 0,0 l/m 5,6 km/h (1 Bft) 0 min 0 min 9,0 km/h (2 Bft)
07.03.2011 21:18 13,8 C 5,1 C 0,0 UV-I 0,0 C 31 % 33 % 0 % 1029,5 hPa 0,0 l/m 7,2 km/h (2 Bft) 0 min 0 min 7,1 km/h (2 Bft)
07.03.2011 21:20 13,8 C 5,1 C 0,0 UV-I 0,0 C 31 % 33 % 0 % 1029,5 hPa 0,0 l/m 7,2 km/h (2 Bft) 0 min 0 min 6,4 km/h (2 Bft)
07.03.2011 21:22 13,8 C 5,1 C 0,0 UV-I 0,0 C 31 % 33 % 0 % 1029,5 hPa 0,0 l/m 7,6 km/h (2 Bft) 0 min 0 min 4,8 km/h (1 Bft)
07.03.2011 21:24 13,8 C 5,1 C 0,0 UV-I 0,0 C 31 % 33 % 0 % 1029,5 hPa 0,0 l/m 7,6 km/h (2 Bft) 0 min 0 min 9,3 km/h (2 Bft)
07.03.2011 21:26 13,6 C 5,1 C 0,0 UV-I 0,0 C 31 % 33 % 0 % 1029,5 hPa 0,0 l/m 7,2 km/h (2 Bft) 0 min 0 min 9,3 km/h (2 Bft)
07.03.2011 21:28 13,6 C 5,0 C 0,0 UV-I 0,0 C 31 % 33 % 0 % 1029,5 hPa 0,0 l/m 7,2 km/h (2 Bft) 0 min 0 min 4,2 km/h (1 Bft)
07.03.2011 21:30 13,6 C 4,9 C 0,0 UV-I 0,0 C 31 % 34 % 0 % 1029,5 hPa 0,0 l/m 5,6 km/h (1 Bft) 0 min 0 min 3,9 km/h (1 Bft)
07.03.2011 21:32 13,7 C 4,9 C 0,0 UV-I 0,0 C 31 % 34 % 0 % 1029,5 hPa 0,0 l/m 6,0 km/h (2 Bft) 0 min 0 min 6,8 km/h (2 Bft)
07.03.2011 21:34 13,7 C 4,8 C 0,0 UV-I 0,0 C 31 % 34 % 0 % 1029,5 hPa 0,0 l/m 6,8 km/h (2 Bft) 0 min 0 min 7,7 km/h (2 Bft)
07.03.2011 21:36 13,6 C 4,8 C 0,0 UV-I 0,0 C 31 % 34 % 0 % 1029,5 hPa 0,0 l/m 6,4 km/h (2 Bft) 0 min 0 min 8,7 km/h (2 Bft)
07.03.2011 21:38 13,6 C 4,8 C 0,0 UV-I 0,0 C 32 % 34 % 0 % 1029,5 hPa 0,0 l/m 6,4 km/h (2 Bft) 0 min 0 min 6,4 km/h (2 Bft)
07.03.2011 21:40 13,6 C 4,8 C 0,0 UV-I 0,0 C 32 % 34 % 0 % 1029,5 hPa 0,0 l/m 6,8 km/h (2 Bft) 0 min 0 min 7,7 km/h (2 Bft)
07.03.2011 21:42 13,6 C 4,8 C 0,0 UV-I 0,0 C 32 % 34 % 0 % 1029,5 hPa 0,0 l/m 8,0 km/h (2 Bft) 0 min 0 min 16,1 km/h (3 Bft)
07.03.2011 21:44 13,6 C 4,8 C 0,0 UV-I 0,0 C 32 % 34 % 0 % 1029,5 hPa 0,0 l/m 8,0 km/h (2 Bft) 0 min 0 min 5,8 km/h (2 Bft)
07.03.2011 21:46 13,6 C 4,7 C 0,0 UV-I 0,0 C 32 % 35 % 0 % 1028,8 hPa 0,0 l/m 7,2 km/h (2 Bft) 0 min 0 min 4,8 km/h (1 Bft)
07.03.2011 21:48 13,6 C 4,7 C 0,0 UV-I 0,0 C 32 % 35 % 0 % 1028,8 hPa 0,0 l/m 6,8 km/h (2 Bft) 0 min 0 min 4,8 km/h (1 Bft)
07.03.2011 21:50 13,6 C 4,7 C 0,0 UV-I 0,0 C 32 % 35 % 0 % 1028,8 hPa 0,0 l/m 7,2 km/h (2 Bft) 0 min 0 min 5,1 km/h (1 Bft)
07.03.2011 21:52 13,6 C 4,7 C 0,0 UV-I 0,0 C 32 % 35 % 0 % 1028,8 hPa 0,0 l/m 6,8 km/h (2 Bft) 0 min 0 min 8,7 km/h (2 Bft)
07.03.2011 21:54 13,6 C 4,7 C 0,0 UV-I 0,0 C 32 % 35 % 0 % 1028,8 hPa 0,0 l/m 6,4 km/h (2 Bft) 0 min 0 min 8,4 km/h (2 Bft)
07.03.2011 21:56 13,4 C 4,5 C 0,0 UV-I 0,0 C 32 % 35 % 0 % 1028,8 hPa 0,0 l/m 6,4 km/h (2 Bft) 0 min 0 min 9,7 km/h (2 Bft)
07.03.2011 21:58 13,4 C 4,5 C 0,0 UV-I 0,0 C 32 % 35 % 0 % 1028,8 hPa 0,0 l/m 6,0 km/h (2 Bft) 0 min 0 min 8,0 km/h (2 Bft)
07.03.2011 22:00 13,5 C 4,5 C 0,0 UV-I 0,0 C 32 % 35 % 0 % 1028,8 hPa 0,0 l/m 6,4 km/h (2 Bft) 0 min 0 min 10,0 km/h (2 Bft)
07.03.2011 22:02 13,4 C 4,5 C 0,0 UV-I 0,0 C 32 % 36 % 0 % 1028,8 hPa 0,0 l/m 6,4 km/h (2 Bft) 0 min 0 min 6,1 km/h (2 Bft)
07.03.2011 22:04 13,5 C 4,4 C 0,0 UV-I 0,0 C 32 % 36 % 0 % 1028,8 hPa 0,0 l/m 6,0 km/h (2 Bft) 0 min 0 min 4,5 km/h (1 Bft)
07.03.2011 22:06 13,5 C 4,4 C 0,0 UV-I 0,0 C 32 % 36 % 0 % 1028,8 hPa 0,0 l/m 6,0 km/h (2 Bft) 0 min 0 min 12,6 km/h (3 Bft)
07.03.2011 22:08 13,5 C 4,4 C 0,0 UV-I 0,0 C 32 % 36 % 0 % 1028,8 hPa 0,0 l/m 6,4 km/h (2 Bft) 0 min 0 min 4,8 km/h (1 Bft)
07.03.2011 22:10 13,5 C 4,4 C 0,0 UV-I 0,0 C 32 % 36 % 0 % 1028,8 hPa 0,0 l/m 6,4 km/h (2 Bft) 0 min 0 min 4,8 km/h (1 Bft)
07.03.2011 22:12 13,3 C 4,3 C 0,0 UV-I 0,0 C 32 % 36 % 0 % 1028,8 hPa 0,0 l/m 6,0 km/h (2 Bft) 0 min 0 min 9,3 km/h (2 Bft)
07.03.2011 22:14 13,3 C 4,3 C 0,0 UV-I 0,0 C 32 % 36 % 0 % 1028,8 hPa 0,0 l/m 6,0 km/h (2 Bft) 0 min 0 min 13,5 km/h (3 Bft)
07.03.2011 22:16 13,3 C 4,2 C 0,0 UV-I 0,0 C 32 % 36 % 0 % 1028,8 hPa 0,0 l/m 6,4 km/h (2 Bft) 0 min 0 min 8,0 km/h (2 Bft)
07.03.2011 22:18 13,4 C 4,2 C 0,0 UV-I 0,0 C 32 % 36 % 0 % 1028,8 hPa 0,0 l/m 6,0 km/h (2 Bft) 0 min 0 min 7,4 km/h (2 Bft)
07.03.2011 22:20 13,4 C 4,3 C 0,0 UV-I 0,0 C 32 % 37 % 0 % 1028,8 hPa 0,0 l/m 6,4 km/h (2 Bft) 0 min 0 min 6,8 km/h (2 Bft)
07.03.2011 22:22 13,4 C 4,2 C 0,0 UV-I 0,0 C 32 % 37 % 0 % 1028,8 hPa 0,0 l/m 7,6 km/h (2 Bft) 0 min 0 min 12,6 km/h (3 Bft)
07.03.2011 22:24 13,4 C 4,3 C 0,0 UV-I 0,0 C 32 % 37 % 0 % 1028,8 hPa 0,0 l/m 7,6 km/h (2 Bft) 0 min 0 min 8,7 km/h (2 Bft)
07.03.2011 22:26 13,4 C 4,1 C 0,0 UV-I 0,0 C 32 % 37 % 0 % 1028,8 hPa 0,0 l/m 7,6 km/h (2 Bft) 0 min 0 min 5,8 km/h (2 Bft)
07.03.2011 22:28 13,4 C 4,1 C 0,0 UV-I 0,0 C 32 % 37 % 0 % 1028,8 hPa 0,0 l/m 7,6 km/h (2 Bft) 0 min 0 min 4,2 km/h (1 Bft)
07.03.2011 22:30 13,2 C 4,0 C 0,0 UV-I 0,0 C 32 % 37 % 0 % 1028,8 hPa 0,0 l/m 7,2 km/h (2 Bft) 0 min 0 min 10,3 km/h (2 Bft)
07.03.2011 22:32 13,2 C 4,0 C 0,0 UV-I 0,0 C 32 % 37 % 0 % 1028,8 hPa 0,0 l/m 6,4 km/h (2 Bft) 0 min 0 min 11,6 km/h (2 Bft)
07.03.2011 22:34 13,2 C 4,0 C 0,0 UV-I 0,0 C 32 % 37 % 0 % 1028,8 hPa 0,0 l/m 6,4 km/h (2 Bft) 0 min 0 min 7,7 km/h (2 Bft)
07.03.2011 22:36 13,2 C 4,0 C 0,0 UV-I 0,0 C 32 % 37 % 0 % 1028,8 hPa 0,0 l/m 6,0 km/h (2 Bft) 0 min 0 min 7,7 km/h (2 Bft)
07.03.2011 22:38 13,2 C 3,9 C 0,0 UV-I 0,0 C 32 % 37 % 0 % 1028,8 hPa 0,0 l/m 6,0 km/h (2 Bft) 0 min 0 min 3,2 km/h (1 Bft)
07.03.2011 22:40 13,3 C 3,9 C 0,0 UV-I 0,0 C 32 % 37 % 0 % 1028,8 hPa 0,0 l/m 6,4 km/h (2 Bft) 0 min 0 min 4,2 km/h (1 Bft)
07.03.2011 22:42 13,3 C 3,9 C 0,0 UV-I 0,0 C 32 % 37 % 0 % 1028,8 hPa 0,0 l/m 6,8 km/h (2 Bft) 0 min 0 min 9,3 km/h (2 Bft)
07.03.2011 22:44 13,3 C 3,8 C 0,0 UV-I 0,0 C 32 % 37 % 0 % 1028,8 hPa 0,0 l/m 6,4 km/h (2 Bft) 0 min 0 min 11,6 km/h (2 Bft)
07.03.2011 22:46 13,1 C 3,9 C 0,0 UV-I 0,0 C 32 % 37 % 0 % 1028,6 hPa 0,0 l/m 6,8 km/h (2 Bft) 0 min 0 min 5,5 km/h (1 Bft)
07.03.2011 22:48 13,1 C 3,8 C 0,0 UV-I 0,0 C 32 % 38 % 0 % 1028,6 hPa 0,0 l/m 5,6 km/h (1 Bft) 0 min 0 min 7,4 km/h (2 Bft)
07.03.2011 22:50 13,1 C 3,7 C 0,0 UV-I 0,0 C 32 % 38 % 0 % 1028,6 hPa 0,0 l/m 5,2 km/h (1 Bft) 0 min 0 min 6,4 km/h (2 Bft)
07.03.2011 22:52 13,1 C 3,6 C 0,0 UV-I 0,0 C 32 % 38 % 0 % 1028,6 hPa 0,0 l/m 6,0 km/h (2 Bft) 0 min 0 min 6,1 km/h (2 Bft)
07.03.2011 22:54 13,1 C 3,6 C 0,0 UV-I 0,0 C 32 % 38 % 0 % 1028,6 hPa 0,0 l/m 5,6 km/h (1 Bft) 0 min 0 min 9,3 km/h (2 Bft)
07.03.2011 22:56 13,2 C 3,6 C 0,0 UV-I 0,0 C 32 % 38 % 0 % 1028,6 hPa 0,0 l/m 6,0 km/h (2 Bft) 0 min 0 min 5,8 km/h (2 Bft)
07.03.2011 22:58 13,1 C 3,7 C 0,0 UV-I 0,0 C 32 % 38 % 0 % 1028,6 hPa 0,0 l/m 6,4 km/h (2 Bft) 0 min 0 min 10,9 km/h (2 Bft)
07.03.2011 23:00 13,2 C 3,7 C 0,0 UV-I 0,0 C 32 % 38 % 0 % 1028,6 hPa 0,0 l/m 6,4 km/h (2 Bft) 0 min 0 min 6,1 km/h (2 Bft)
07.03.2011 23:02 13,2 C 3,6 C 0,0 UV-I 0,0 C 32 % 38 % 0 % 1028,6 hPa 0,0 l/m 6,0 km/h (2 Bft) 0 min 0 min 5,8 km/h (2 Bft)
07.03.2011 23:04 13,2 C 3,5 C 0,0 UV-I 0,0 C 32 % 38 % 0 % 1028,6 hPa 0,0 l/m 5,6 km/h (1 Bft) 0 min 0 min 7,7 km/h (2 Bft)
07.03.2011 23:06 13,2 C 3,5 C 0,0 UV-I 0,0 C 32 % 38 % 0 % 1028,3 hPa 0,0 l/m 5,6 km/h (1 Bft) 0 min 0 min 5,5 km/h (1 Bft)
07.03.2011 23:08 13,2 C 3,5 C 0,0 UV-I 0,0 C 32 % 39 % 0 % 1028,3 hPa 0,0 l/m 6,0 km/h (2 Bft) 0 min 0 min 9,0 km/h (2 Bft)
07.03.2011 23:10 13,2 C 3,5 C 0,0 UV-I 0,0 C 32 % 39 % 0 % 1028,3 hPa 0,0 l/m 6,4 km/h (2 Bft) 0 min 0 min 7,1 km/h (2 Bft)
07.03.2011 23:12 13,2 C 3,5 C 0,0 UV-I 0,0 C 32 % 39 % 0 % 1028,3 hPa 0,0 l/m 6,4 km/h (2 Bft) 0 min 0 min 3,5 km/h (1 Bft)
07.03.2011 23:14 13,1 C 3,5 C 0,0 UV-I 0,0 C 32 % 39 % 0 % 1028,3 hPa 0,0 l/m 6,8 km/h (2 Bft) 0 min 0 min 9,0 km/h (2 Bft)
07.03.2011 23:16 13,2 C 3,5 C 0,0 UV-I 0,0 C 32 % 39 % 0 % 1028,3 hPa 0,0 l/m 6,4 km/h (2 Bft) 0 min 0 min 4,8 km/h (1 Bft)
07.03.2011 23:18 13,1 C 3,5 C 0,0 UV-I 0,0 C 32 % 39 % 0 % 1028,3 hPa 0,0 l/m 6,0 km/h (2 Bft) 0 min 0 min 6,1 km/h (2 Bft)
07.03.2011 23:20 13,1 C 3,4 C 0,0 UV-I 0,0 C 32 % 39 % 0 % 1028,3 hPa 0,0 l/m 6,0 km/h (2 Bft) 0 min 0 min 6,1 km/h (2 Bft)
07.03.2011 23:22 13,1 C 3,3 C 0,0 UV-I 0,0 C 32 % 39 % 0 % 1028,3 hPa 0,0 l/m 5,6 km/h (1 Bft) 0 min 0 min 8,7 km/h (2 Bft)
07.03.2011 23:24 13,1 C 3,3 C 0,0 UV-I 0,0 C 32 % 40 % 0 % 1028,3 hPa 0,0 l/m 5,6 km/h (1 Bft) 0 min 0 min 5,5 km/h (1 Bft)
07.03.2011 23:26 13,1 C 3,2 C 0,0 UV-I 0,0 C 32 % 40 % 0 % 1028,4 hPa 0,0 l/m 6,0 km/h (2 Bft) 0 min 0 min 9,0 km/h (2 Bft)
07.03.2011 23:28 13,1 C 3,2 C 0,0 UV-I 0,0 C 32 % 40 % 0 % 1028,4 hPa 0,0 l/m 6,8 km/h (2 Bft) 0 min 0 min 9,7 km/h (2 Bft)
07.03.2011 23:30 13,1 C 3,2 C 0,0 UV-I 0,0 C 32 % 40 % 0 % 1028,4 hPa 0,0 l/m 8,0 km/h (2 Bft) 0 min 0 min 9,3 km/h (2 Bft)
07.03.2011 23:32 13,1 C 3,2 C 0,0 UV-I 0,0 C 32 % 40 % 0 % 1028,4 hPa 0,0 l/m 7,2 km/h (2 Bft) 0 min 0 min 7,1 km/h (2 Bft)
07.03.2011 23:34 12,9 C 3,3 C 0,0 UV-I 0,0 C 32 % 40 % 0 % 1028,4 hPa 0,0 l/m 6,8 km/h (2 Bft) 0 min 0 min 6,1 km/h (2 Bft)
07.03.2011 23:36 12,9 C 3,3 C 0,0 UV-I 0,0 C 32 % 40 % 0 % 1028,4 hPa 0,0 l/m 7,6 km/h (2 Bft) 0 min 0 min 20,0 km/h (4 Bft)
07.03.2011 23:38 12,9 C 3,3 C 0,0 UV-I 0,0 C 32 % 40 % 0 % 1028,4 hPa 0,0 l/m 7,6 km/h (2 Bft) 0 min 0 min 11,6 km/h (2 Bft)
07.03.2011 23:40 13,0 C 3,3 C 0,0 UV-I 0,0 C 32 % 40 % 0 % 1028,4 hPa 0,0 l/m 7,2 km/h (2 Bft) 0 min 0 min 7,1 km/h (2 Bft)
07.03.2011 23:42 12,9 C 3,2 C 0,0 UV-I 0,0 C 32 % 40 % 0 % 1028,4 hPa 0,0 l/m 7,2 km/h (2 Bft) 0 min 0 min 10,6 km/h (2 Bft)
07.03.2011 23:44 13,0 C 3,2 C 0,0 UV-I 0,0 C 32 % 40 % 0 % 1028,4 hPa 0,0 l/m 8,8 km/h (2 Bft) 0 min 0 min 10,6 km/h (2 Bft)
07.03.2011 23:46 13,0 C 3,2 C 0,0 UV-I 0,0 C 32 % 40 % 0 % 1027,6 hPa 0,0 l/m 8,4 km/h (2 Bft) 0 min 0 min 7,7 km/h (2 Bft)
07.03.2011 23:48 13,0 C 3,2 C 0,0 UV-I 0,0 C 32 % 40 % 0 % 1027,6 hPa 0,0 l/m 8,8 km/h (2 Bft) 0 min 0 min 10,9 km/h (2 Bft)
07.03.2011 23:50 13,0 C 3,1 C 0,0 UV-I 0,0 C 32 % 41 % 0 % 1027,6 hPa 0,0 l/m 8,0 km/h (2 Bft) 0 min 0 min 6,1 km/h (2 Bft)
07.03.2011 23:52 13,0 C 3,1 C 0,0 UV-I 0,0 C 32 % 41 % 0 % 1027,6 hPa 0,0 l/m 8,8 km/h (2 Bft) 0 min 0 min 9,0 km/h (2 Bft)
07.03.2011 23:54 13,0 C 3,1 C 0,0 UV-I 0,0 C 32 % 41 % 0 % 1027,6 hPa 0,0 l/m 9,2 km/h (2 Bft) 0 min 0 min 16,4 km/h (3 Bft)
07.03.2011 23:56 13,0 C 3,1 C 0,0 UV-I 0,0 C 32 % 41 % 0 % 1027,6 hPa 0,0 l/m 8,8 km/h (2 Bft) 0 min 0 min 11,6 km/h (2 Bft)
07.03.2011 23:58 13,0 C 3,1 C 0,0 UV-I 0,0 C 32 % 41 % 0 % 1027,6 hPa 0,0 l/m 8,8 km/h (2 Bft) 0 min 0 min 5,5 km/h (1 Bft)
_ Min-Zeit 08:04 05:48 00:00 00:00 15:40 16:46 00:00 23:46 - 00:00 - - 00:00
Minimum _ 10,9 C -3,0 C 0,0 UV-I 0,0 C 28 % 23 % 0 % 1027,6 hPa - 0,0 km/h (0 Bft) - - 0,0 km/h (0 Bft)
_ Max-Zeit 16:20 15:32 13:08 09:00 00:00 06:02 08:30 13:26 00:00 12:26 08:24 00:00 14:44
Maximum _ 18,3 C 10,9 C 0,8 UV-I 8,5 C 41 % 79 % 100 % 1036,3 hPa 0,0 l/m 13,7 km/h
N-NO (3 Bft)
2 min 0 min 30,3 km/h
NO (5 Bft)
Durchschnitt _ 13,4 C 3,7 C 0,0 UV-I 2,1 C 36 % 49 % 37 % 1032,1 hPa #0,0 l/m 4,8 km/h (1 Bft) #9:04 h #0 min. 5,6 km/h (1 Bft)
© 2012 W. Hausmann